Wetterdaten: Samstag, 24.12.2016
Datum Zeit Temp. Aussen Temp. o. S. +5cm Feuchte Auss BlattFeu 1 Luftdruck Regen Sonnenschein Regendauer Solar Windben Empfang
24.12.2016 00:00 5,4 C 6,1 C 4,4 C 90 % 0 lf 1023,9 hPa 0,0 l/m 0 min 0 min 0 W/m 16,7 km/h (3 Bft) 93,62 %
24.12.2016 00:02 5,5 C 6,1 C 4,4 C 90 % 0 lf 1023,8 hPa 0,0 l/m 0 min 0 min 0 W/m 12,6 km/h (3 Bft) 94,29 %
24.12.2016 00:05 5,6 C 6,1 C 4,4 C 90 % 0 lf 1023,7 hPa 0,0 l/m 0 min 0 min 0 W/m 14,6 km/h (3 Bft) 91,43 %
24.12.2016 00:06 5,6 C 6,1 C 4,4 C 90 % 0 lf 1023,7 hPa 0,0 l/m 0 min 0 min 0 W/m 10,5 km/h (2 Bft) 91,30 %
24.12.2016 00:08 5,6 C 6,1 C 4,4 C 90 % 0 lf 1023,8 hPa 0,0 l/m 0 min 0 min 0 W/m 20,9 km/h (4 Bft) 100,00 %
24.12.2016 00:10 5,7 C 6,7 C 5,0 C 90 % 0 lf 1023,6 hPa 0,0 l/m 0 min 0 min 0 W/m 18,8 km/h (3 Bft) 95,74 %
24.12.2016 00:12 5,8 C 6,7 C 5,0 C 90 % 0 lf 1023,5 hPa 0,0 l/m 0 min 0 min 0 W/m 18,8 km/h (3 Bft) 95,74 %
24.12.2016 00:14 5,8 C 6,7 C 5,0 C 90 % 0 lf 1023,5 hPa 0,0 l/m 0 min 0 min 0 W/m 20,9 km/h (4 Bft) 97,87 %
24.12.2016 00:16 5,9 C 6,7 C 5,0 C 90 % 0 lf 1023,4 hPa 0,0 l/m 0 min 0 min 0 W/m 25,1 km/h (4 Bft) 95,65 %
24.12.2016 00:18 5,9 C 6,7 C 5,0 C 90 % 0 lf 1023,5 hPa 0,0 l/m 0 min 0 min 0 W/m 23,0 km/h (4 Bft) 97,87 %
24.12.2016 00:20 6,0 C 6,7 C 5,0 C 90 % 0 lf 1023,4 hPa 0,0 l/m 0 min 0 min 0 W/m 14,6 km/h (3 Bft) 100,00 %
24.12.2016 00:22 6,1 C 7,2 C 5,0 C 90 % 0 lf 1023,4 hPa 0,0 l/m 0 min 0 min 0 W/m 18,8 km/h (3 Bft) 97,87 %
24.12.2016 00:24 6,2 C 7,2 C 5,0 C 89 % 0 lf 1023,3 hPa 0,0 l/m 0 min 0 min 0 W/m 18,8 km/h (3 Bft) 97,87 %
24.12.2016 00:26 6,2 C 7,2 C 5,6 C 89 % 0 lf 1023,4 hPa 0,0 l/m 0 min 0 min 0 W/m 29,3 km/h (5 Bft) 100,00 %
24.12.2016 00:28 6,3 C 7,2 C 5,6 C 89 % 0 lf 1023,4 hPa 0,0 l/m 0 min 0 min 0 W/m 20,9 km/h (4 Bft) 97,83 %
24.12.2016 00:30 6,3 C 7,2 C 5,6 C 89 % 0 lf 1023,3 hPa 0,0 l/m 0 min 0 min 0 W/m 23,0 km/h (4 Bft) 93,62 %
24.12.2016 00:32 6,4 C 7,2 C 5,6 C 89 % 0 lf 1023,3 hPa 0,0 l/m 0 min 0 min 0 W/m 25,1 km/h (4 Bft) 97,87 %
24.12.2016 00:34 6,4 C 7,2 C 5,6 C 89 % 0 lf 1023,2 hPa 0,0 l/m 0 min 0 min 0 W/m 25,1 km/h (4 Bft) 97,87 %
24.12.2016 00:36 6,6 C 7,2 C 5,6 C 89 % 0 lf 1023,2 hPa 0,0 l/m 0 min 0 min 0 W/m 23,0 km/h (4 Bft) 93,62 %
24.12.2016 00:38 6,6 C 7,2 C 5,6 C 89 % 0 lf 1023,1 hPa 0,0 l/m 0 min 0 min 0 W/m 23,0 km/h (4 Bft) 97,83 %
24.12.2016 00:40 6,7 C 7,2 C 5,6 C 88 % 0 lf 1023,2 hPa 0,0 l/m 0 min 0 min 0 W/m 27,2 km/h (4 Bft) 95,74 %
24.12.2016 00:42 6,7 C 7,2 C 5,6 C 88 % 0 lf 1023,2 hPa 0,0 l/m 0 min 0 min 0 W/m 37,7 km/h (5 Bft) 100,00 %
24.12.2016 00:44 6,8 C 7,2 C 5,6 C 88 % 0 lf 1023,1 hPa 0,0 l/m 0 min 0 min 0 W/m 23,0 km/h (4 Bft) 100,00 %
24.12.2016 00:46 6,8 C 7,2 C 5,6 C 88 % 0 lf 1023,1 hPa 0,0 l/m 0 min 0 min 0 W/m 29,3 km/h (5 Bft) 93,62 %
24.12.2016 00:48 6,9 C 7,2 C 5,6 C 88 % 0 lf 1023,0 hPa 0,0 l/m 0 min 0 min 0 W/m 35,6 km/h (5 Bft) 100,00 %
24.12.2016 00:50 6,9 C 7,8 C 5,6 C 88 % 0 lf 1023,0 hPa 0,0 l/m 0 min 0 min 0 W/m 37,7 km/h (5 Bft) 97,83 %
24.12.2016 00:52 7,0 C 7,8 C 5,6 C 88 % 0 lf 1022,9 hPa 0,0 l/m 0 min 0 min 0 W/m 29,3 km/h (5 Bft) 93,62 %
24.12.2016 00:54 7,1 C 7,8 C 6,1 C 88 % 0 lf 1022,8 hPa 0,0 l/m 0 min 0 min 0 W/m 35,6 km/h (5 Bft) 93,62 %
24.12.2016 00:56 7,1 C 7,8 C 6,1 C 87 % 0 lf 1022,8 hPa 0,0 l/m 0 min 0 min 0 W/m 27,2 km/h (4 Bft) 91,49 %
24.12.2016 00:58 7,1 C 7,8 C 5,6 C 87 % 0 lf 1022,8 hPa 0,0 l/m 0 min 0 min 0 W/m 31,4 km/h (5 Bft) 93,62 %
24.12.2016 01:00 7,2 C 7,8 C 5,6 C 87 % 0 lf 1022,8 hPa 0,0 l/m 0 min 0 min 0 W/m 20,9 km/h (4 Bft) 97,87 %
24.12.2016 01:02 7,2 C 7,8 C 6,1 C 87 % 0 lf 1022,9 hPa 0,0 l/m 0 min 0 min 0 W/m 31,4 km/h (5 Bft) 97,83 %
24.12.2016 01:04 7,2 C 7,8 C 5,6 C 87 % 1 lf 1022,9 hPa 0,0 l/m 0 min 0 min 0 W/m 33,5 km/h (5 Bft) 97,87 %
24.12.2016 01:06 7,2 C 7,2 C 5,6 C 87 % 9 lf 1022,9 hPa 0,0 l/m 0 min 0 min 0 W/m 12,6 km/h (3 Bft) 95,74 %
24.12.2016 01:08 7,3 C 7,2 C 5,6 C 87 % 15 lf 1022,9 hPa 0,0 l/m 0 min 2 min 0 W/m 35,6 km/h (5 Bft) 95,74 %
24.12.2016 01:10 7,3 C 7,2 C 5,0 C 88 % 15 lf 1023,0 hPa 0,0 l/m 0 min 0 min 0 W/m 20,9 km/h (4 Bft) 95,74 %
24.12.2016 01:12 7,3 C 6,7 C 5,0 C 88 % 15 lf 1022,9 hPa 0,0 l/m 0 min 0 min 0 W/m 35,6 km/h (5 Bft) 95,74 %
24.12.2016 01:14 7,3 C 6,7 C 5,0 C 88 % 15 lf 1022,9 hPa 0,0 l/m 0 min 0 min 0 W/m 29,3 km/h (5 Bft) 91,30 %
24.12.2016 01:16 7,3 C 6,7 C 5,0 C 89 % 15 lf 1022,8 hPa 0,0 l/m 0 min 0 min 0 W/m 25,1 km/h (4 Bft) 95,74 %
24.12.2016 01:18 7,3 C 6,7 C 5,0 C 89 % 15 lf 1022,8 hPa 0,0 l/m 0 min 0 min 0 W/m 31,4 km/h (5 Bft) 95,74 %
24.12.2016 01:20 7,3 C 6,7 C 5,0 C 89 % 15 lf 1022,9 hPa 0,0 l/m 0 min 0 min 0 W/m 35,6 km/h (5 Bft) 93,62 %
24.12.2016 01:22 7,2 C 6,7 C 5,0 C 89 % 15 lf 1023,0 hPa 0,0 l/m 0 min 2 min 0 W/m 25,1 km/h (4 Bft) 95,74 %
24.12.2016 01:24 7,2 C 6,7 C 5,0 C 90 % 15 lf 1022,9 hPa 0,0 l/m 0 min 2 min 0 W/m 29,3 km/h (5 Bft) 93,62 %
24.12.2016 01:26 7,2 C 6,7 C 5,0 C 90 % 15 lf 1023,0 hPa 0,0 l/m 0 min 0 min 0 W/m 31,4 km/h (5 Bft) 95,65 %
24.12.2016 01:28 7,1 C 6,7 C 5,0 C 90 % 15 lf 1023,0 hPa 0,0 l/m 0 min 2 min 0 W/m 27,2 km/h (4 Bft) 95,74 %
24.12.2016 01:30 7,1 C 6,7 C 5,0 C 90 % 15 lf 1022,9 hPa 0,0 l/m 0 min 0 min 0 W/m 25,1 km/h (4 Bft) 95,74 %
24.12.2016 01:32 7,1 C 6,1 C 5,0 C 91 % 15 lf 1022,9 hPa 0,0 l/m 0 min 0 min 0 W/m 25,1 km/h (4 Bft) 93,62 %
24.12.2016 01:34 7,0 C 6,1 C 5,0 C 91 % 15 lf 1022,9 hPa 0,0 l/m 0 min 0 min 0 W/m 33,5 km/h (5 Bft) 93,62 %
24.12.2016 01:36 7,0 C 6,1 C 5,0 C 91 % 15 lf 1022,9 hPa 0,0 l/m 0 min 2 min 0 W/m 31,4 km/h (5 Bft) 89,36 %
24.12.2016 01:38 6,9 C 6,1 C 5,0 C 91 % 15 lf 1022,8 hPa 0,0 l/m 0 min 0 min 0 W/m 23,0 km/h (4 Bft) 91,30 %
24.12.2016 01:40 6,9 C 6,1 C 5,0 C 92 % 15 lf 1022,8 hPa 0,0 l/m 0 min 0 min 0 W/m 39,7 km/h (6 Bft) 100,00 %
24.12.2016 01:42 6,9 C 6,1 C 5,0 C 92 % 15 lf 1022,8 hPa 0,0 l/m 0 min 2 min 0 W/m 31,4 km/h (5 Bft) 100,00 %
24.12.2016 01:44 6,9 C 6,1 C 5,0 C 92 % 15 lf 1022,8 hPa 0,0 l/m 0 min 2 min 0 W/m 27,2 km/h (4 Bft) 100,00 %
24.12.2016 01:46 6,9 C 6,1 C 5,0 C 92 % 15 lf 1022,8 hPa 0,0 l/m 0 min 0 min 0 W/m 31,4 km/h (5 Bft) 97,87 %
24.12.2016 01:48 6,8 C 6,7 C 5,0 C 92 % 15 lf 1022,8 hPa 0,0 l/m 0 min 0 min 0 W/m 25,1 km/h (4 Bft) 97,83 %
24.12.2016 01:50 6,8 C 6,7 C 5,0 C 93 % 15 lf 1022,8 hPa 0,0 l/m 0 min 0 min 0 W/m 31,4 km/h (5 Bft) 95,74 %
24.12.2016 01:52 6,8 C 6,7 C 5,0 C 93 % 15 lf 1022,8 hPa 0,0 l/m 0 min 2 min 0 W/m 29,3 km/h (5 Bft) 97,87 %
24.12.2016 01:54 6,8 C 6,7 C 5,0 C 93 % 15 lf 1022,7 hPa 0,0 l/m 0 min 0 min 0 W/m 20,9 km/h (4 Bft) 100,00 %
24.12.2016 01:56 6,8 C 6,7 C 5,0 C 93 % 15 lf 1022,7 hPa 0,0 l/m 0 min 0 min 0 W/m 27,2 km/h (4 Bft) 93,62 %
24.12.2016 01:58 6,8 C 6,7 C 5,0 C 93 % 15 lf 1022,7 hPa 0,0 l/m 0 min 0 min 0 W/m 23,0 km/h (4 Bft) 97,87 %
24.12.2016 02:00 6,8 C 6,7 C 5,0 C 94 % 15 lf 1022,7 hPa 0,0 l/m 0 min 0 min 0 W/m 29,3 km/h (5 Bft) 97,83 %
24.12.2016 02:02 6,8 C 6,7 C 5,0 C 94 % 15 lf 1022,8 hPa 0,0 l/m 0 min 0 min 0 W/m 23,0 km/h (4 Bft) 97,87 %
24.12.2016 02:04 6,8 C 6,7 C 5,0 C 94 % 15 lf 1022,7 hPa 0,0 l/m 0 min 0 min 0 W/m 23,0 km/h (4 Bft) 93,62 %
24.12.2016 02:06 6,8 C 6,7 C 5,0 C 94 % 15 lf 1022,8 hPa 0,0 l/m 0 min 0 min 0 W/m 23,0 km/h (4 Bft) 93,62 %
24.12.2016 02:08 6,8 C 6,7 C 5,0 C 94 % 15 lf 1022,7 hPa 0,0 l/m 0 min 0 min 0 W/m 23,0 km/h (4 Bft) 97,87 %
24.12.2016 02:10 6,8 C 6,7 C 5,0 C 94 % 15 lf 1022,8 hPa 0,0 l/m 0 min 0 min 0 W/m 25,1 km/h (4 Bft) 97,87 %
24.12.2016 02:12 6,8 C 6,7 C 5,0 C 94 % 15 lf 1022,8 hPa 0,0 l/m 0 min 2 min 0 W/m 27,2 km/h (4 Bft) 95,65 %
24.12.2016 02:14 6,8 C 6,7 C 5,0 C 94 % 15 lf 1023,0 hPa 0,0 l/m 0 min 2 min 0 W/m 46,0 km/h (6 Bft) 95,74 %
24.12.2016 02:16 6,8 C 6,7 C 5,0 C 94 % 15 lf 1022,9 hPa 0,0 l/m 0 min 2 min 0 W/m 25,1 km/h (4 Bft) 95,74 %
24.12.2016 02:18 6,8 C 6,7 C 5,0 C 94 % 15 lf 1022,9 hPa 0,0 l/m 0 min 2 min 0 W/m 37,7 km/h (5 Bft) 95,74 %
24.12.2016 02:20 6,8 C 6,7 C 5,0 C 95 % 15 lf 1022,8 hPa 0,0 l/m 0 min 2 min 0 W/m 25,1 km/h (4 Bft) 95,74 %
24.12.2016 02:22 6,8 C 6,7 C 5,0 C 95 % 15 lf 1022,9 hPa 0,0 l/m 0 min 2 min 0 W/m 27,2 km/h (4 Bft) 93,62 %
24.12.2016 02:24 6,8 C 6,7 C 5,0 C 95 % 15 lf 1022,9 hPa 0,0 l/m 0 min 2 min 0 W/m 29,3 km/h (5 Bft) 97,83 %
24.12.2016 02:26 6,8 C 6,7 C 5,0 C 95 % 15 lf 1022,9 hPa 0,0 l/m 0 min 2 min 0 W/m 39,7 km/h (6 Bft) 91,49 %
24.12.2016 02:28 6,8 C 6,7 C 5,0 C 95 % 15 lf 1022,8 hPa 0,0 l/m 0 min 2 min 0 W/m 33,5 km/h (5 Bft) 93,62 %
24.12.2016 02:30 6,8 C 6,7 C 5,0 C 95 % 15 lf 1022,9 hPa 0,0 l/m 0 min 2 min 0 W/m 33,5 km/h (5 Bft) 93,62 %
24.12.2016 02:32 6,8 C 6,7 C 5,0 C 95 % 15 lf 1022,8 hPa 0,0 l/m 0 min 2 min 0 W/m 33,5 km/h (5 Bft) 95,74 %
24.12.2016 02:34 6,8 C 6,7 C 5,0 C 95 % 15 lf 1023,1 hPa 0,2 l/m 0 min 2 min 0 W/m 41,8 km/h (6 Bft) 95,74 %
24.12.2016 02:36 6,8 C 6,7 C 5,0 C 95 % 15 lf 1022,8 hPa 0,0 l/m 0 min 2 min 0 W/m 37,7 km/h (5 Bft) 95,65 %
24.12.2016 02:38 6,8 C 6,7 C 5,0 C 95 % 15 lf 1022,9 hPa 0,0 l/m 0 min 2 min 0 W/m 31,4 km/h (5 Bft) 95,74 %
24.12.2016 02:40 6,8 C 6,7 C 5,0 C 95 % 15 lf 1022,8 hPa 0,0 l/m 0 min 2 min 0 W/m 29,3 km/h (5 Bft) 95,74 %
24.12.2016 02:42 6,8 C 6,7 C 5,0 C 95 % 15 lf 1023,0 hPa 0,2 l/m 0 min 2 min 0 W/m 31,4 km/h (5 Bft) 97,87 %
24.12.2016 02:44 6,8 C 6,7 C 5,0 C 95 % 15 lf 1022,9 hPa 0,0 l/m 0 min 2 min 0 W/m 23,0 km/h (4 Bft) 97,87 %
24.12.2016 02:46 6,7 C 6,7 C 5,0 C 95 % 15 lf 1022,9 hPa 0,0 l/m 0 min 2 min 0 W/m 33,5 km/h (5 Bft) 95,74 %
24.12.2016 02:48 6,7 C 6,7 C 5,0 C 95 % 15 lf 1023,0 hPa 0,0 l/m 0 min 0 min 0 W/m 25,1 km/h (4 Bft) 97,83 %
24.12.2016 02:50 6,7 C 6,7 C 5,0 C 95 % 15 lf 1023,0 hPa 0,0 l/m 0 min 2 min 0 W/m 25,1 km/h (4 Bft) 97,87 %
24.12.2016 02:52 6,7 C 6,7 C 5,0 C 95 % 15 lf 1023,1 hPa 0,0 l/m 0 min 2 min 0 W/m 27,2 km/h (4 Bft) 95,74 %
24.12.2016 02:54 6,7 C 6,7 C 5,0 C 95 % 15 lf 1023,0 hPa 0,0 l/m 0 min 2 min 0 W/m 31,4 km/h (5 Bft) 97,87 %
24.12.2016 02:56 6,7 C 6,7 C 5,0 C 95 % 15 lf 1023,0 hPa 0,0 l/m 0 min 2 min 0 W/m 29,3 km/h (5 Bft) 91,49 %
24.12.2016 02:58 6,7 C 6,7 C 5,0 C 96 % 15 lf 1023,1 hPa 0,0 l/m 0 min 2 min 0 W/m 27,2 km/h (4 Bft) 95,74 %
24.12.2016 03:00 6,7 C 6,7 C 5,0 C 96 % 15 lf 1023,0 hPa 0,0 l/m 0 min 2 min 0 W/m 35,6 km/h (5 Bft) 93,48 %
24.12.2016 03:02 6,7 C 6,7 C 5,0 C 96 % 15 lf 1023,1 hPa 0,0 l/m 0 min 2 min 0 W/m 29,3 km/h (5 Bft) 93,62 %
24.12.2016 03:04 6,7 C 6,7 C 5,0 C 96 % 15 lf 1023,1 hPa 0,0 l/m 0 min 2 min 0 W/m 29,3 km/h (5 Bft) 95,74 %
24.12.2016 03:06 6,7 C 6,7 C 5,0 C 96 % 15 lf 1023,1 hPa 0,0 l/m 0 min 2 min 0 W/m 31,4 km/h (5 Bft) 93,62 %
24.12.2016 03:08 6,7 C 6,7 C 5,0 C 96 % 15 lf 1023,2 hPa 0,0 l/m 0 min 2 min 0 W/m 29,3 km/h (5 Bft) 91,49 %
24.12.2016 03:10 6,7 C 6,7 C 5,0 C 96 % 15 lf 1023,2 hPa 0,0 l/m 0 min 2 min 0 W/m 23,0 km/h (4 Bft) 93,48 %
24.12.2016 03:12 6,7 C 6,7 C 5,0 C 96 % 15 lf 1023,2 hPa 0,0 l/m 0 min 0 min 0 W/m 37,7 km/h (5 Bft) 93,62 %
24.12.2016 03:14 6,7 C 6,7 C 5,0 C 96 % 15 lf 1023,3 hPa 0,0 l/m 0 min 2 min 0 W/m 29,3 km/h (5 Bft) 93,62 %
24.12.2016 03:16 6,7 C 6,7 C 5,0 C 96 % 15 lf 1023,2 hPa 0,0 l/m 0 min 2 min 0 W/m 29,3 km/h (5 Bft) 93,62 %
24.12.2016 03:18 6,7 C 6,7 C 5,0 C 96 % 15 lf 1023,2 hPa 0,0 l/m 0 min 2 min 0 W/m 23,0 km/h (4 Bft) 87,23 %
24.12.2016 03:20 6,7 C 6,7 C 5,0 C 96 % 15 lf 1023,2 hPa 0,0 l/m 0 min 0 min 0 W/m 25,1 km/h (4 Bft) 93,62 %
24.12.2016 03:22 6,7 C 6,7 C 5,0 C 96 % 15 lf 1023,2 hPa 0,0 l/m 0 min 0 min 0 W/m 29,3 km/h (5 Bft) 95,65 %
24.12.2016 03:24 6,7 C 6,7 C 5,0 C 96 % 15 lf 1023,2 hPa 0,0 l/m 0 min 0 min 0 W/m 23,0 km/h (4 Bft) 97,87 %
24.12.2016 03:26 6,7 C 6,7 C 5,0 C 96 % 15 lf 1023,2 hPa 0,0 l/m 0 min 0 min 0 W/m 20,9 km/h (4 Bft) 95,74 %
24.12.2016 03:28 6,7 C 6,7 C 5,0 C 96 % 15 lf 1023,3 hPa 0,0 l/m 0 min 0 min 0 W/m 29,3 km/h (5 Bft) 95,74 %
24.12.2016 03:30 6,7 C 6,7 C 5,0 C 96 % 15 lf 1023,2 hPa 0,0 l/m 0 min 0 min 0 W/m 33,5 km/h (5 Bft) 95,74 %
24.12.2016 03:32 6,7 C 6,7 C 5,0 C 96 % 15 lf 1023,2 hPa 0,0 l/m 0 min 0 min 0 W/m 27,2 km/h (4 Bft) 100,00 %
24.12.2016 03:34 6,7 C 6,7 C 5,0 C 96 % 15 lf 1023,3 hPa 0,0 l/m 0 min 2 min 0 W/m 25,1 km/h (4 Bft) 97,83 %
24.12.2016 03:36 6,7 C 6,7 C 5,0 C 96 % 15 lf 1023,2 hPa 0,0 l/m 0 min 0 min 0 W/m 20,9 km/h (4 Bft) 95,74 %
24.12.2016 03:38 6,7 C 6,7 C 5,0 C 96 % 15 lf 1023,3 hPa 0,0 l/m 0 min 0 min 0 W/m 25,1 km/h (4 Bft) 97,87 %
24.12.2016 03:40 6,7 C 6,7 C 5,0 C 96 % 15 lf 1023,3 hPa 0,0 l/m 0 min 0 min 0 W/m 23,0 km/h (4 Bft) 100,00 %
24.12.2016 03:42 6,7 C 6,7 C 5,0 C 96 % 15 lf 1023,3 hPa 0,0 l/m 0 min 0 min 0 W/m 16,7 km/h (3 Bft) 95,74 %
24.12.2016 03:44 6,7 C 6,7 C 5,0 C 96 % 15 lf 1023,3 hPa 0,0 l/m 0 min 0 min 0 W/m 25,1 km/h (4 Bft) 95,74 %
24.12.2016 03:46 6,7 C 6,7 C 5,0 C 96 % 15 lf 1023,3 hPa 0,2 l/m 0 min 2 min 0 W/m 31,4 km/h (5 Bft) 100,00 %
24.12.2016 03:48 6,7 C 6,7 C 5,0 C 96 % 15 lf 1023,4 hPa 0,0 l/m 0 min 0 min 0 W/m 23,0 km/h (4 Bft) 100,00 %
24.12.2016 03:50 6,7 C 6,7 C 5,0 C 96 % 15 lf 1023,4 hPa 0,0 l/m 0 min 0 min 0 W/m 27,2 km/h (4 Bft) 93,62 %
24.12.2016 03:52 6,7 C 6,7 C 5,0 C 96 % 15 lf 1023,3 hPa 0,0 l/m 0 min 2 min 0 W/m 23,0 km/h (4 Bft) 93,62 %
24.12.2016 03:54 6,7 C 6,7 C 5,0 C 96 % 15 lf 1023,4 hPa 0,0 l/m 0 min 2 min 0 W/m 20,9 km/h (4 Bft) 93,62 %
24.12.2016 03:56 6,7 C 6,7 C 5,0 C 96 % 15 lf 1023,3 hPa 0,0 l/m 0 min 0 min 0 W/m 23,0 km/h (4 Bft) 95,74 %
24.12.2016 03:58 6,7 C 6,7 C 5,0 C 97 % 15 lf 1023,3 hPa 0,0 l/m 0 min 2 min 0 W/m 25,1 km/h (4 Bft) 97,83 %
24.12.2016 04:00 6,7 C 6,7 C 5,0 C 97 % 15 lf 1023,3 hPa 0,0 l/m 0 min 0 min 0 W/m 25,1 km/h (4 Bft) 93,62 %
24.12.2016 04:02 6,7 C 6,7 C 5,0 C 97 % 15 lf 1023,3 hPa 0,0 l/m 0 min 0 min 0 W/m 27,2 km/h (4 Bft) 100,00 %
24.12.2016 04:04 6,7 C 6,7 C 5,0 C 97 % 15 lf 1023,3 hPa 0,0 l/m 0 min 2 min 0 W/m 27,2 km/h (4 Bft) 97,87 %
24.12.2016 04:06 6,7 C 6,7 C 5,0 C 97 % 15 lf 1023,3 hPa 0,0 l/m 0 min 2 min 0 W/m 27,2 km/h (4 Bft) 87,23 %
24.12.2016 04:08 6,7 C 6,7 C 5,0 C 97 % 15 lf 1023,4 hPa 0,0 l/m 0 min 2 min 0 W/m 27,2 km/h (4 Bft) 95,74 %
24.12.2016 04:10 6,7 C 6,7 C 5,0 C 97 % 15 lf 1023,3 hPa 0,0 l/m 0 min 2 min 0 W/m 27,2 km/h (4 Bft) 97,83 %
24.12.2016 04:12 6,7 C 6,7 C 5,0 C 97 % 15 lf 1023,3 hPa 0,0 l/m 0 min 2 min 0 W/m 31,4 km/h (5 Bft) 95,74 %
24.12.2016 04:14 6,7 C 6,7 C 5,0 C 97 % 15 lf 1023,4 hPa 0,0 l/m 0 min 2 min 0 W/m 27,2 km/h (4 Bft) 97,87 %
24.12.2016 04:16 6,7 C 6,7 C 5,0 C 97 % 15 lf 1023,3 hPa 0,0 l/m 0 min 2 min 0 W/m 27,2 km/h (4 Bft) 97,87 %
24.12.2016 04:18 6,7 C 6,7 C 5,0 C 97 % 15 lf 1023,5 hPa 0,0 l/m 0 min 0 min 0 W/m 31,4 km/h (5 Bft) 95,74 %
24.12.2016 04:20 6,7 C 6,7 C 5,0 C 97 % 15 lf 1023,4 hPa 0,0 l/m 0 min 0 min 0 W/m 20,9 km/h (4 Bft) 95,65 %
24.12.2016 04:22 6,7 C 6,7 C 5,0 C 97 % 15 lf 1023,5 hPa 0,0 l/m 0 min 0 min 0 W/m 25,1 km/h (4 Bft) 95,74 %
24.12.2016 04:24 6,7 C 6,7 C 5,0 C 97 % 15 lf 1023,4 hPa 0,0 l/m 0 min 0 min 0 W/m 25,1 km/h (4 Bft) 95,74 %
24.12.2016 04:26 6,7 C 6,7 C 5,0 C 97 % 15 lf 1023,4 hPa 0,0 l/m 0 min 2 min 0 W/m 29,3 km/h (5 Bft) 97,87 %
24.12.2016 04:28 6,7 C 6,7 C 5,0 C 97 % 15 lf 1023,3 hPa 0,0 l/m 0 min 0 min 0 W/m 31,4 km/h (5 Bft) 95,74 %
24.12.2016 04:30 6,7 C 6,7 C 5,0 C 97 % 15 lf 1023,2 hPa 0,0 l/m 0 min 0 min 0 W/m 23,0 km/h (4 Bft) 97,87 %
24.12.2016 04:32 6,7 C 6,7 C 5,0 C 97 % 15 lf 1023,3 hPa 0,0 l/m 0 min 0 min 0 W/m 29,3 km/h (5 Bft) 91,49 %
24.12.2016 04:34 6,7 C 6,7 C 5,0 C 97 % 15 lf 1023,3 hPa 0,0 l/m 0 min 0 min 0 W/m 33,5 km/h (5 Bft) 95,65 %
24.12.2016 04:36 6,7 C 6,7 C 5,0 C 97 % 15 lf 1023,3 hPa 0,0 l/m 0 min 2 min 0 W/m 20,9 km/h (4 Bft) 95,74 %
24.12.2016 04:38 6,7 C 6,7 C 5,0 C 97 % 15 lf 1023,3 hPa 0,0 l/m 0 min 2 min 0 W/m 29,3 km/h (5 Bft) 95,74 %
24.12.2016 04:40 6,7 C 6,7 C 5,0 C 97 % 15 lf 1023,3 hPa 0,0 l/m 0 min 0 min 0 W/m 25,1 km/h (4 Bft) 93,62 %
24.12.2016 04:42 6,7 C 6,7 C 5,0 C 97 % 15 lf 1023,3 hPa 0,0 l/m 0 min 0 min 0 W/m 31,4 km/h (5 Bft) 93,62 %
24.12.2016 04:44 6,8 C 6,7 C 5,0 C 97 % 15 lf 1023,3 hPa 0,0 l/m 0 min 0 min 0 W/m 25,1 km/h (4 Bft) 91,30 %
24.12.2016 04:46 6,8 C 6,7 C 5,0 C 97 % 15 lf 1023,2 hPa 0,0 l/m 0 min 0 min 0 W/m 14,6 km/h (3 Bft) 93,62 %
24.12.2016 04:48 6,8 C 6,7 C 5,0 C 97 % 15 lf 1023,2 hPa 0,0 l/m 0 min 0 min 0 W/m 27,2 km/h (4 Bft) 97,87 %
24.12.2016 04:50 6,8 C 6,7 C 5,0 C 97 % 15 lf 1023,3 hPa 0,0 l/m 0 min 0 min 0 W/m 20,9 km/h (4 Bft) 97,87 %
24.12.2016 04:52 6,8 C 6,7 C 5,6 C 97 % 15 lf 1023,3 hPa 0,0 l/m 0 min 0 min 0 W/m 31,4 km/h (5 Bft) 97,87 %
24.12.2016 04:54 6,8 C 6,7 C 5,6 C 97 % 15 lf 1023,3 hPa 0,0 l/m 0 min 0 min 0 W/m 23,0 km/h (4 Bft) 95,74 %
24.12.2016 04:56 6,8 C 6,7 C 5,6 C 97 % 15 lf 1023,3 hPa 0,0 l/m 0 min 0 min 0 W/m 25,1 km/h (4 Bft) 93,48 %
24.12.2016 04:58 6,8 C 6,7 C 5,6 C 97 % 15 lf 1023,4 hPa 0,0 l/m 0 min 0 min 0 W/m 27,2 km/h (4 Bft) 93,62 %
24.12.2016 05:00 6,8 C 6,7 C 5,6 C 97 % 15 lf 1023,4 hPa 0,0 l/m 0 min 0 min 0 W/m 25,1 km/h (4 Bft) 95,74 %
24.12.2016 05:02 6,8 C 6,7 C 5,6 C 97 % 15 lf 1023,4 hPa 0,0 l/m 0 min 0 min 0 W/m 25,1 km/h (4 Bft) 91,49 %
24.12.2016 05:04 6,8 C 6,7 C 5,6 C 97 % 15 lf 1023,5 hPa 0,0 l/m 0 min 0 min 0 W/m 23,0 km/h (4 Bft) 95,74 %
24.12.2016 05:06 6,8 C 6,7 C 5,6 C 97 % 15 lf 1023,4 hPa 0,0 l/m 0 min 0 min 0 W/m 20,9 km/h (4 Bft) 91,49 %
24.12.2016 05:08 6,8 C 6,7 C 5,6 C 97 % 15 lf 1023,4 hPa 0,0 l/m 0 min 0 min 0 W/m 23,0 km/h (4 Bft) 95,65 %
24.12.2016 05:10 6,8 C 6,7 C 5,6 C 97 % 15 lf 1023,4 hPa 0,0 l/m 0 min 0 min 0 W/m 23,0 km/h (4 Bft) 93,62 %
24.12.2016 05:12 6,8 C 6,7 C 5,6 C 97 % 15 lf 1023,3 hPa 0,0 l/m 0 min 2 min 0 W/m 27,2 km/h (4 Bft) 89,36 %
24.12.2016 05:14 6,8 C 6,7 C 5,6 C 97 % 15 lf 1023,4 hPa 0,0 l/m 0 min 0 min 0 W/m 25,1 km/h (4 Bft) 93,62 %
24.12.2016 05:16 6,8 C 6,7 C 5,6 C 97 % 15 lf 1023,4 hPa 0,0 l/m 0 min 0 min 0 W/m 25,1 km/h (4 Bft) 93,62 %
24.12.2016 05:18 6,8 C 6,7 C 5,6 C 97 % 15 lf 1023,4 hPa 0,0 l/m 0 min 0 min 0 W/m 27,2 km/h (4 Bft) 97,87 %
24.12.2016 05:20 6,9 C 6,7 C 5,6 C 97 % 15 lf 1023,5 hPa 0,0 l/m 0 min 0 min 0 W/m 20,9 km/h (4 Bft) 97,83 %
24.12.2016 05:22 6,9 C 6,7 C 5,6 C 97 % 15 lf 1023,5 hPa 0,0 l/m 0 min 0 min 0 W/m 27,2 km/h (4 Bft) 95,74 %
24.12.2016 05:24 6,9 C 6,7 C 5,6 C 97 % 15 lf 1023,5 hPa 0,0 l/m 0 min 0 min 0 W/m 18,8 km/h (3 Bft) 97,87 %
24.12.2016 05:26 6,9 C 6,7 C 5,6 C 97 % 15 lf 1023,5 hPa 0,0 l/m 0 min 0 min 0 W/m 18,8 km/h (3 Bft) 100,00 %
24.12.2016 05:28 6,9 C 6,7 C 5,6 C 97 % 15 lf 1023,4 hPa 0,0 l/m 0 min 0 min 0 W/m 29,3 km/h (5 Bft) 100,00 %
24.12.2016 05:30 6,9 C 6,7 C 5,6 C 97 % 15 lf 1023,4 hPa 0,0 l/m 0 min 0 min 0 W/m 25,1 km/h (4 Bft) 100,00 %
24.12.2016 05:32 6,9 C 6,7 C 5,6 C 97 % 15 lf 1023,6 hPa 0,0 l/m 0 min 0 min 0 W/m 25,1 km/h (4 Bft) 100,00 %
24.12.2016 05:34 6,9 C 6,7 C 5,6 C 97 % 15 lf 1023,6 hPa 0,0 l/m 0 min 0 min 0 W/m 29,3 km/h (5 Bft) 97,87 %
24.12.2016 05:36 6,9 C 6,7 C 5,6 C 97 % 15 lf 1023,6 hPa 0,0 l/m 0 min 0 min 0 W/m 20,9 km/h (4 Bft) 97,87 %
24.12.2016 05:38 6,9 C 6,7 C 5,6 C 97 % 15 lf 1023,5 hPa 0,0 l/m 0 min 0 min 0 W/m 20,9 km/h (4 Bft) 100,00 %
24.12.2016 05:40 6,9 C 6,7 C 5,6 C 97 % 15 lf 1023,6 hPa 0,0 l/m 0 min 0 min 0 W/m 23,0 km/h (4 Bft) 100,00 %
24.12.2016 05:42 6,9 C 6,7 C 5,6 C 97 % 15 lf 1023,6 hPa 0,0 l/m 0 min 0 min 0 W/m 25,1 km/h (4 Bft) 97,83 %
24.12.2016 05:44 6,9 C 6,7 C 5,6 C 97 % 15 lf 1023,6 hPa 0,0 l/m 0 min 0 min 0 W/m 23,0 km/h (4 Bft) 100,00 %
24.12.2016 05:46 6,9 C 6,7 C 5,6 C 97 % 15 lf 1023,6 hPa 0,0 l/m 0 min 0 min 0 W/m 23,0 km/h (4 Bft) 100,00 %
24.12.2016 05:48 6,9 C 6,7 C 5,6 C 97 % 15 lf 1023,6 hPa 0,0 l/m 0 min 0 min 0 W/m 18,8 km/h (3 Bft) 97,87 %
24.12.2016 05:50 6,9 C 7,2 C 5,6 C 97 % 15 lf 1023,6 hPa 0,0 l/m 0 min 0 min 0 W/m 23,0 km/h (4 Bft) 97,87 %
24.12.2016 05:52 6,9 C 7,2 C 5,6 C 97 % 15 lf 1023,7 hPa 0,0 l/m 0 min 0 min 0 W/m 23,0 km/h (4 Bft) 95,74 %
24.12.2016 05:54 6,9 C 6,7 C 5,6 C 97 % 15 lf 1023,6 hPa 0,0 l/m 0 min 0 min 0 W/m 20,9 km/h (4 Bft) 100,00 %
24.12.2016 05:56 6,9 C 6,7 C 5,6 C 97 % 15 lf 1023,6 hPa 0,0 l/m 0 min 0 min 0 W/m 18,8 km/h (3 Bft) 100,00 %
24.12.2016 05:58 6,9 C 7,2 C 5,6 C 97 % 15 lf 1023,6 hPa 0,0 l/m 0 min 0 min 0 W/m 18,8 km/h (3 Bft) 97,87 %
24.12.2016 06:00 6,9 C 7,2 C 5,6 C 97 % 15 lf 1023,6 hPa 0,0 l/m 0 min 0 min 0 W/m 20,9 km/h (4 Bft) 97,87 %
24.12.2016 06:02 7,0 C 7,2 C 5,6 C 97 % 15 lf 1023,6 hPa 0,0 l/m 0 min 0 min 0 W/m 20,9 km/h (4 Bft) 96,15 %
24.12.2016 06:06 7,0 C 7,2 C 5,6 C 97 % 15 lf 1023,5 hPa 0,0 l/m 0 min 0 min 0 W/m 20,9 km/h (4 Bft) 100,00 %
24.12.2016 06:08 7,0 C 7,2 C 5,6 C 97 % 15 lf 1023,5 hPa 0,0 l/m 0 min 0 min 0 W/m 20,9 km/h (4 Bft) 100,00 %
24.12.2016 06:10 7,0 C 7,2 C 5,6 C 97 % 15 lf 1023,4 hPa 0,0 l/m 0 min 0 min 0 W/m 18,8 km/h (3 Bft) 97,87 %
24.12.2016 06:12 7,0 C 6,7 C 5,6 C 97 % 15 lf 1023,4 hPa 0,0 l/m 0 min 0 min 0 W/m 23,0 km/h (4 Bft) 100,00 %
24.12.2016 06:14 7,0 C 6,7 C 5,6 C 97 % 15 lf 1023,4 hPa 0,0 l/m 0 min 0 min 0 W/m 18,8 km/h (3 Bft) 97,87 %
24.12.2016 06:16 7,0 C 6,7 C 5,6 C 97 % 15 lf 1023,4 hPa 0,0 l/m 0 min 0 min 0 W/m 20,9 km/h (4 Bft) 100,00 %
24.12.2016 06:18 7,0 C 6,7 C 5,6 C 97 % 15 lf 1023,4 hPa 0,0 l/m 0 min 0 min 0 W/m 16,7 km/h (3 Bft) 100,00 %
24.12.2016 06:20 7,0 C 6,7 C 5,6 C 97 % 15 lf 1023,5 hPa 0,0 l/m 0 min 0 min 0 W/m 20,9 km/h (4 Bft) 97,87 %
24.12.2016 06:22 7,0 C 6,7 C 5,6 C 97 % 15 lf 1023,5 hPa 0,0 l/m 0 min 0 min 0 W/m 10,5 km/h (2 Bft) 100,00 %
24.12.2016 06:24 7,0 C 6,7 C 5,0 C 97 % 15 lf 1023,5 hPa 0,0 l/m 0 min 0 min 0 W/m 16,7 km/h (3 Bft) 95,74 %
24.12.2016 06:26 6,9 C 6,7 C 5,0 C 97 % 15 lf 1023,6 hPa 0,0 l/m 0 min 0 min 0 W/m 12,6 km/h (3 Bft) 89,36 %
24.12.2016 06:28 6,9 C 6,7 C 5,0 C 97 % 15 lf 1023,6 hPa 0,0 l/m 0 min 0 min 0 W/m 14,6 km/h (3 Bft) 97,83 %
24.12.2016 06:30 6,9 C 6,7 C 5,0 C 97 % 15 lf 1023,6 hPa 0,0 l/m 0 min 0 min 0 W/m 18,8 km/h (3 Bft) 95,74 %
24.12.2016 06:32 6,9 C 6,7 C 5,0 C 97 % 15 lf 1023,6 hPa 0,0 l/m 0 min 0 min 0 W/m 20,9 km/h (4 Bft) 95,74 %
24.12.2016 06:34 6,9 C 6,7 C 5,0 C 97 % 15 lf 1023,6 hPa 0,0 l/m 0 min 0 min 0 W/m 16,7 km/h (3 Bft) 97,87 %
24.12.2016 06:36 6,9 C 6,7 C 5,0 C 97 % 15 lf 1023,6 hPa 0,0 l/m 0 min 0 min 0 W/m 20,9 km/h (4 Bft) 95,74 %
24.12.2016 06:38 6,9 C 6,7 C 5,0 C 97 % 15 lf 1023,7 hPa 0,0 l/m 0 min 0 min 0 W/m 16,7 km/h (3 Bft) 97,87 %
24.12.2016 06:40 6,9 C 6,7 C 5,0 C 97 % 15 lf 1023,6 hPa 0,0 l/m 0 min 0 min 0 W/m 14,6 km/h (3 Bft) 95,65 %
24.12.2016 06:42 6,9 C 6,7 C 5,0 C 97 % 15 lf 1023,6 hPa 0,0 l/m 0 min 0 min 0 W/m 14,6 km/h (3 Bft) 93,62 %
24.12.2016 06:44 6,9 C 6,7 C 5,0 C 97 % 15 lf 1023,5 hPa 0,0 l/m 0 min 0 min 0 W/m 20,9 km/h (4 Bft) 93,62 %
24.12.2016 06:46 6,9 C 6,7 C 5,0 C 97 % 15 lf 1023,4 hPa 0,0 l/m 0 min 0 min 0 W/m 16,7 km/h (3 Bft) 93,62 %
24.12.2016 06:48 6,9 C 6,7 C 5,0 C 97 % 15 lf 1023,5 hPa 0,0 l/m 0 min 0 min 0 W/m 20,9 km/h (4 Bft) 93,62 %
24.12.2016 06:50 6,9 C 6,7 C 5,0 C 97 % 15 lf 1023,6 hPa 0,0 l/m 0 min 0 min 0 W/m 16,7 km/h (3 Bft) 91,49 %
24.12.2016 06:52 6,9 C 6,7 C 5,0 C 97 % 15 lf 1023,6 hPa 0,0 l/m 0 min 0 min 0 W/m 16,7 km/h (3 Bft) 91,30 %
24.12.2016 06:54 6,9 C 6,7 C 5,0 C 97 % 15 lf 1023,6 hPa 0,0 l/m 0 min 0 min 0 W/m 18,8 km/h (3 Bft) 91,49 %
24.12.2016 06:56 6,9 C 6,7 C 5,0 C 97 % 15 lf 1023,6 hPa 0,0 l/m 0 min 0 min 0 W/m 23,0 km/h (4 Bft) 91,49 %
24.12.2016 06:58 6,9 C 6,7 C 5,0 C 97 % 15 lf 1023,5 hPa 0,0 l/m 0 min 0 min 0 W/m 20,9 km/h (4 Bft) 91,49 %
24.12.2016 07:00 6,9 C 6,7 C 5,0 C 97 % 15 lf 1023,6 hPa 0,0 l/m 0 min 0 min 0 W/m 20,9 km/h (4 Bft) 93,62 %
24.12.2016 07:02 6,9 C 6,7 C 5,0 C 97 % 15 lf 1023,7 hPa 0,0 l/m 0 min 0 min 0 W/m 23,0 km/h (4 Bft) 93,48 %
24.12.2016 07:04 6,9 C 6,7 C 5,0 C 97 % 15 lf 1023,7 hPa 0,0 l/m 0 min 0 min 0 W/m 14,6 km/h (3 Bft) 91,49 %
24.12.2016 07:06 6,9 C 6,7 C 5,0 C 97 % 15 lf 1023,7 hPa 0,0 l/m 0 min 0 min 0 W/m 23,0 km/h (4 Bft) 93,62 %
24.12.2016 07:08 6,9 C 6,7 C 5,0 C 97 % 15 lf 1023,8 hPa 0,0 l/m 0 min 0 min 0 W/m 14,6 km/h (3 Bft) 89,36 %
24.12.2016 07:10 6,9 C 6,7 C 5,0 C 97 % 15 lf 1023,7 hPa 0,0 l/m 0 min 0 min 0 W/m 12,6 km/h (3 Bft) 89,36 %
24.12.2016 07:12 6,9 C 6,7 C 5,6 C 97 % 15 lf 1023,8 hPa 0,0 l/m 0 min 0 min 0 W/m 14,6 km/h (3 Bft) 91,49 %
24.12.2016 07:14 6,9 C 6,7 C 5,6 C 97 % 15 lf 1023,8 hPa 0,0 l/m 0 min 0 min 0 W/m 18,8 km/h (3 Bft) 93,48 %
24.12.2016 07:16 6,9 C 6,7 C 5,6 C 97 % 15 lf 1023,9 hPa 0,0 l/m 0 min 0 min 0 W/m 14,6 km/h (3 Bft) 89,36 %
24.12.2016 07:18 6,9 C 7,2 C 5,6 C 97 % 15 lf 1023,9 hPa 0,0 l/m 0 min 0 min 0 W/m 20,9 km/h (4 Bft) 93,62 %
24.12.2016 07:20 6,9 C 7,2 C 5,6 C 97 % 15 lf 1024,0 hPa 0,0 l/m 0 min 0 min 0 W/m 20,9 km/h (4 Bft) 93,62 %
24.12.2016 07:22 7,0 C 7,2 C 5,6 C 97 % 15 lf 1024,0 hPa 0,0 l/m 0 min 0 min 0 W/m 27,2 km/h (4 Bft) 93,62 %
24.12.2016 07:24 7,0 C 7,2 C 5,6 C 97 % 15 lf 1024,0 hPa 0,0 l/m 0 min 0 min 0 W/m 23,0 km/h (4 Bft) 93,62 %
24.12.2016 07:26 7,1 C 7,2 C 5,6 C 97 % 15 lf 1024,0 hPa 0,0 l/m 0 min 0 min 0 W/m 20,9 km/h (4 Bft) 91,30 %
24.12.2016 07:28 7,1 C 7,2 C 5,6 C 97 % 15 lf 1024,0 hPa 0,0 l/m 0 min 2 min 0 W/m 23,0 km/h (4 Bft) 89,36 %
24.12.2016 07:30 7,1 C 7,2 C 5,6 C 97 % 15 lf 1024,0 hPa 0,0 l/m 0 min 2 min 0 W/m 25,1 km/h (4 Bft) 91,49 %
24.12.2016 07:32 7,1 C 7,2 C 5,6 C 97 % 15 lf 1024,1 hPa 0,0 l/m 0 min 2 min 0 W/m 25,1 km/h (4 Bft) 93,62 %
24.12.2016 07:34 7,2 C 7,2 C 5,6 C 97 % 15 lf 1024,1 hPa 0,0 l/m 0 min 0 min 0 W/m 14,6 km/h (3 Bft) 87,23 %
24.12.2016 07:36 7,2 C 7,2 C 5,6 C 97 % 15 lf 1024,1 hPa 0,0 l/m 0 min 0 min 0 W/m 20,9 km/h (4 Bft) 89,36 %
24.12.2016 07:38 7,2 C 7,2 C 5,6 C 97 % 15 lf 1024,1 hPa 0,0 l/m 0 min 0 min 0 W/m 25,1 km/h (4 Bft) 95,65 %
24.12.2016 07:40 7,2 C 7,2 C 5,6 C 97 % 15 lf 1024,1 hPa 0,0 l/m 0 min 0 min 0 W/m 23,0 km/h (4 Bft) 97,87 %
24.12.2016 07:42 7,2 C 7,2 C 5,6 C 97 % 15 lf 1024,1 hPa 0,0 l/m 0 min 0 min 0 W/m 16,7 km/h (3 Bft) 95,74 %
24.12.2016 07:44 7,2 C 7,2 C 5,6 C 97 % 15 lf 1024,1 hPa 0,0 l/m 0 min 0 min 0 W/m 16,7 km/h (3 Bft) 97,87 %
24.12.2016 07:46 7,2 C 7,2 C 5,6 C 97 % 15 lf 1024,0 hPa 0,0 l/m 0 min 0 min 0 W/m 12,6 km/h (3 Bft) 95,74 %
24.12.2016 07:48 7,2 C 7,2 C 5,6 C 97 % 15 lf 1024,1 hPa 0,0 l/m 0 min 0 min 0 W/m 20,9 km/h (4 Bft) 100,00 %
24.12.2016 07:50 7,2 C 7,2 C 5,6 C 97 % 15 lf 1024,0 hPa 0,0 l/m 0 min 0 min 0 W/m 20,9 km/h (4 Bft) 97,83 %
24.12.2016 07:52 7,2 C 7,2 C 5,6 C 97 % 15 lf 1024,1 hPa 0,0 l/m 0 min 0 min 0 W/m 27,2 km/h (4 Bft) 100,00 %
24.12.2016 07:54 7,2 C 7,2 C 5,6 C 97 % 15 lf 1024,1 hPa 0,0 l/m 0 min 0 min 0 W/m 23,0 km/h (4 Bft) 97,87 %
24.12.2016 07:56 7,2 C 7,2 C 5,6 C 97 % 15 lf 1024,2 hPa 0,0 l/m 0 min 0 min 0 W/m 16,7 km/h (3 Bft) 95,74 %
24.12.2016 07:58 7,2 C 7,2 C 5,6 C 97 % 15 lf 1024,4 hPa 0,0 l/m 0 min 0 min 0 W/m 18,8 km/h (3 Bft) 97,87 %
24.12.2016 08:00 7,2 C 7,2 C 5,6 C 97 % 15 lf 1024,3 hPa 0,0 l/m 0 min 0 min 0 W/m 20,9 km/h (4 Bft) 100,00 %
24.12.2016 08:02 7,2 C 7,2 C 5,6 C 97 % 14 lf 1024,3 hPa 0,0 l/m 0 min 0 min 0 W/m 20,9 km/h (4 Bft) 97,83 %
24.12.2016 08:04 7,2 C 7,2 C 5,6 C 97 % 14 lf 1024,3 hPa 0,0 l/m 0 min 0 min 0 W/m 23,0 km/h (4 Bft) 97,87 %
24.12.2016 08:06 7,2 C 7,2 C 5,6 C 97 % 13 lf 1024,3 hPa 0,0 l/m 0 min 0 min 0 W/m 25,1 km/h (4 Bft) 97,87 %
24.12.2016 08:08 7,2 C 7,2 C 5,6 C 97 % 13 lf 1024,3 hPa 0,0 l/m 0 min 0 min 0 W/m 23,0 km/h (4 Bft) 93,62 %
24.12.2016 08:10 7,3 C 7,2 C 5,6 C 97 % 12 lf 1024,1 hPa 0,0 l/m 0 min 0 min 0 W/m 25,1 km/h (4 Bft) 97,87 %
24.12.2016 08:12 7,3 C 7,2 C 5,6 C 97 % 11 lf 1024,1 hPa 0,0 l/m 0 min 0 min 0 W/m 23,0 km/h (4 Bft) 100,00 %
24.12.2016 08:14 7,3 C 7,2 C 5,6 C 97 % 9 lf 1024,2 hPa 0,0 l/m 0 min 0 min 0 W/m 23,0 km/h (4 Bft) 97,87 %
24.12.2016 08:16 7,3 C 7,2 C 5,6 C 97 % 7 lf 1024,1 hPa 0,0 l/m 0 min 0 min 0 W/m 25,1 km/h (4 Bft) 95,74 %
24.12.2016 08:18 7,3 C 7,2 C 5,6 C 97 % 4 lf 1024,2 hPa 0,0 l/m 0 min 0 min 0 W/m 25,1 km/h (4 Bft) 97,87 %
24.12.2016 08:20 7,3 C 7,2 C 5,6 C 97 % 4 lf 1024,1 hPa 0,0 l/m 0 min 0 min 0 W/m 18,8 km/h (3 Bft) 100,00 %
24.12.2016 08:22 7,3 C 7,2 C 5,6 C 97 % 3 lf 1024,1 hPa 0,0 l/m 0 min 0 min 0 W/m 27,2 km/h (4 Bft) 97,87 %
24.12.2016 08:24 7,3 C 7,2 C 5,6 C 97 % 2 lf 1024,1 hPa 0,0 l/m 0 min 0 min 0 W/m 20,9 km/h (4 Bft) 97,83 %
24.12.2016 08:26 7,3 C 7,2 C 5,6 C 97 % 1 lf 1024,2 hPa 0,0 l/m 0 min 0 min 0 W/m 23,0 km/h (4 Bft) 93,62 %
24.12.2016 08:28 7,3 C 7,2 C 5,6 C 97 % 1 lf 1024,2 hPa 0,0 l/m 0 min 0 min 0 W/m 20,9 km/h (4 Bft) 95,74 %
24.12.2016 08:30 7,3 C 7,2 C 5,6 C 97 % 1 lf 1024,3 hPa 0,0 l/m 0 min 0 min 4 W/m 20,9 km/h (4 Bft) 95,74 %
24.12.2016 08:32 7,3 C 7,2 C 5,6 C 97 % 0 lf 1024,3 hPa 0,0 l/m 0 min 0 min 5 W/m 16,7 km/h (3 Bft) 97,87 %
24.12.2016 08:34 7,3 C 7,2 C 5,6 C 97 % 0 lf 1024,3 hPa 0,0 l/m 0 min 0 min 5 W/m 10,5 km/h (2 Bft) 95,74 %
24.12.2016 08:36 7,3 C 7,2 C 5,6 C 97 % 0 lf 1024,3 hPa 0,0 l/m 0 min 0 min 5 W/m 14,6 km/h (3 Bft) 100,00 %
24.12.2016 08:38 7,3 C 7,2 C 5,6 C 97 % 0 lf 1024,2 hPa 0,0 l/m 0 min 0 min 5 W/m 18,8 km/h (3 Bft) 95,74 %
24.12.2016 08:40 7,3 C 7,2 C 5,6 C 97 % 0 lf 1024,1 hPa 0,0 l/m 0 min 0 min 7 W/m 25,1 km/h (4 Bft) 97,87 %
24.12.2016 08:42 7,3 C 7,2 C 5,6 C 97 % 0 lf 1024,1 hPa 0,0 l/m 0 min 0 min 7 W/m 20,9 km/h (4 Bft) 97,87 %
24.12.2016 08:44 7,3 C 7,2 C 5,6 C 97 % 0 lf 1024,1 hPa 0,0 l/m 0 min 0 min 9 W/m 16,7 km/h (3 Bft) 95,74 %
24.12.2016 08:46 7,3 C 7,2 C 5,6 C 97 % 0 lf 1024,0 hPa 0,0 l/m 0 min 0 min 7 W/m 18,8 km/h (3 Bft) 97,87 %
24.12.2016 08:48 7,3 C 7,2 C 5,6 C 97 % 0 lf 1023,9 hPa 0,0 l/m 0 min 0 min 7 W/m 14,6 km/h (3 Bft) 97,83 %
24.12.2016 08:50 7,3 C 7,2 C 5,6 C 97 % 0 lf 1023,9 hPa 0,0 l/m 0 min 0 min 7 W/m 14,6 km/h (3 Bft) 95,74 %
24.12.2016 08:52 7,3 C 7,2 C 5,6 C 97 % 0 lf 1023,8 hPa 0,0 l/m 0 min 0 min 9 W/m 18,8 km/h (3 Bft) 97,87 %
24.12.2016 08:54 7,3 C 7,2 C 5,6 C 97 % 0 lf 1023,7 hPa 0,0 l/m 0 min 0 min 12 W/m 18,8 km/h (3 Bft) 97,87 %
24.12.2016 08:56 7,3 C 7,2 C 5,6 C 97 % 0 lf 1023,6 hPa 0,0 l/m 0 min 0 min 14 W/m 12,6 km/h (3 Bft) 97,87 %
24.12.2016 08:58 7,3 C 7,2 C 5,6 C 97 % 0 lf 1023,5 hPa 0,0 l/m 0 min 0 min 19 W/m 25,1 km/h (4 Bft) 97,87 %
24.12.2016 09:00 7,3 C 7,2 C 5,6 C 97 % 0 lf 1023,6 hPa 0,0 l/m 0 min 0 min 19 W/m 16,7 km/h (3 Bft) 95,65 %
24.12.2016 09:02 7,3 C 7,2 C 5,6 C 97 % 0 lf 1023,6 hPa 0,0 l/m 0 min 0 min 20 W/m 18,8 km/h (3 Bft) 97,87 %
24.12.2016 09:04 7,3 C 7,2 C 5,6 C 97 % 0 lf 1023,7 hPa 0,0 l/m 0 min 0 min 19 W/m 20,9 km/h (4 Bft) 97,87 %
24.12.2016 09:06 7,3 C 7,2 C 5,6 C 97 % 0 lf 1023,8 hPa 0,0 l/m 0 min 0 min 19 W/m 16,7 km/h (3 Bft) 100,00 %
24.12.2016 09:08 7,3 C 7,2 C 5,6 C 97 % 0 lf 1023,8 hPa 0,0 l/m 0 min 0 min 19 W/m 18,8 km/h (3 Bft) 95,74 %
24.12.2016 09:10 7,3 C 7,2 C 5,6 C 97 % 0 lf 1024,0 hPa 0,0 l/m 0 min 0 min 18 W/m 18,8 km/h (3 Bft) 97,87 %
24.12.2016 09:12 7,2 C 7,2 C 5,6 C 96 % 0 lf 1024,1 hPa 0,0 l/m 0 min 0 min 18 W/m 18,8 km/h (3 Bft) 97,83 %
24.12.2016 09:14 7,3 C 7,2 C 5,6 C 96 % 0 lf 1024,2 hPa 0,0 l/m 0 min 0 min 18 W/m 23,0 km/h (4 Bft) 100,00 %
24.12.2016 09:16 7,2 C 7,2 C 5,6 C 96 % 0 lf 1024,3 hPa 0,0 l/m 0 min 0 min 18 W/m 23,0 km/h (4 Bft) 95,74 %
24.12.2016 09:18 7,2 C 7,2 C 5,6 C 96 % 0 lf 1024,2 hPa 0,0 l/m 0 min 0 min 19 W/m 27,2 km/h (4 Bft) 100,00 %
24.12.2016 09:20 7,2 C 7,2 C 5,6 C 96 % 0 lf 1024,2 hPa 0,0 l/m 0 min 0 min 20 W/m 20,9 km/h (4 Bft) 97,87 %
24.12.2016 09:22 7,2 C 7,2 C 5,6 C 96 % 0 lf 1024,1 hPa 0,0 l/m 0 min 0 min 22 W/m 18,8 km/h (3 Bft) 100,00 %
24.12.2016 09:24 7,2 C 7,2 C 5,6 C 96 % 0 lf 1023,9 hPa 0,0 l/m 0 min 0 min 25 W/m 18,8 km/h (3 Bft) 97,87 %
24.12.2016 09:26 7,2 C 7,2 C 5,6 C 96 % 0 lf 1023,9 hPa 0,0 l/m 0 min 0 min 25 W/m 18,8 km/h (3 Bft) 97,87 %
24.12.2016 09:28 7,2 C 7,2 C 5,6 C 96 % 0 lf 1024,1 hPa 0,0 l/m 0 min 0 min 26 W/m 18,8 km/h (3 Bft) 97,87 %
24.12.2016 09:30 7,2 C 7,2 C 5,6 C 96 % 0 lf 1024,0 hPa 0,0 l/m 0 min 0 min 29 W/m 18,8 km/h (3 Bft) 100,00 %
24.12.2016 09:32 7,2 C 7,2 C 5,6 C 96 % 0 lf 1023,9 hPa 0,0 l/m 0 min 0 min 32 W/m 16,7 km/h (3 Bft) 95,74 %
24.12.2016 09:34 7,2 C 7,2 C 5,6 C 96 % 0 lf 1024,1 hPa 0,0 l/m 0 min 0 min 30 W/m 16,7 km/h (3 Bft) 100,00 %
24.12.2016 09:36 7,2 C 7,2 C 5,6 C 96 % 0 lf 1024,2 hPa 0,0 l/m 0 min 0 min 28 W/m 23,0 km/h (4 Bft) 95,65 %
24.12.2016 09:38 7,2 C 7,2 C 5,6 C 96 % 0 lf 1024,4 hPa 0,0 l/m 0 min 0 min 26 W/m 18,8 km/h (3 Bft) 97,87 %
24.12.2016 09:40 7,2 C 7,2 C 5,0 C 96 % 0 lf 1024,6 hPa 0,0 l/m 0 min 0 min 24 W/m 18,8 km/h (3 Bft) 93,62 %
24.12.2016 09:42 7,2 C 7,2 C 5,0 C 96 % 0 lf 1024,6 hPa 0,0 l/m 0 min 0 min 25 W/m 20,9 km/h (4 Bft) 95,74 %
24.12.2016 09:44 7,2 C 7,2 C 5,0 C 96 % 0 lf 1024,6 hPa 0,0 l/m 0 min 0 min 26 W/m 20,9 km/h (4 Bft) 97,87 %
24.12.2016 09:46 7,2 C 7,2 C 5,0 C 96 % 0 lf 1024,6 hPa 0,0 l/m 0 min 0 min 33 W/m 16,7 km/h (3 Bft) 97,83 %
24.12.2016 09:48 7,2 C 7,8 C 5,6 C 96 % 0 lf 1024,7 hPa 0,0 l/m 0 min 0 min 54 W/m 20,9 km/h (4 Bft) 93,62 %
24.12.2016 09:50 7,2 C 7,8 C 5,6 C 96 % 0 lf 1024,8 hPa 0,0 l/m 2 min 0 min 82 W/m 20,9 km/h (4 Bft) 95,74 %
24.12.2016 09:52 7,2 C 7,8 C 5,6 C 96 % 0 lf 1024,8 hPa 0,0 l/m 0 min 0 min 68 W/m 23,0 km/h (4 Bft) 91,49 %
24.12.2016 09:54 7,3 C 7,8 C 5,6 C 96 % 0 lf 1024,9 hPa 0,0 l/m 0 min 0 min 49 W/m 23,0 km/h (4 Bft) 95,74 %
24.12.2016 09:56 7,3 C 7,8 C 6,1 C 96 % 0 lf 1024,9 hPa 0,0 l/m 0 min 0 min 67 W/m 14,6 km/h (3 Bft) 95,74 %
24.12.2016 09:58 7,3 C 7,8 C 6,1 C 96 % 0 lf 1025,1 hPa 0,0 l/m 0 min 0 min 65 W/m 23,0 km/h (4 Bft) 95,65 %
24.12.2016 10:00 7,3 C 7,8 C 6,1 C 96 % 0 lf 1025,1 hPa 0,0 l/m 0 min 0 min 48 W/m 20,9 km/h (4 Bft) 95,74 %
24.12.2016 10:02 7,3 C 7,8 C 6,1 C 96 % 0 lf 1025,0 hPa 0,0 l/m 0 min 0 min 42 W/m 25,1 km/h (4 Bft) 93,62 %
24.12.2016 10:04 7,3 C 7,8 C 6,1 C 96 % 0 lf 1025,0 hPa 0,0 l/m 0 min 0 min 27 W/m 23,0 km/h (4 Bft) 95,74 %
24.12.2016 10:06 7,4 C 7,8 C 6,1 C 96 % 0 lf 1025,1 hPa 0,0 l/m 0 min 0 min 23 W/m 27,2 km/h (4 Bft) 95,74 %
24.12.2016 10:08 7,4 C 7,8 C 6,1 C 96 % 0 lf 1025,2 hPa 0,0 l/m 0 min 0 min 28 W/m 31,4 km/h (5 Bft) 93,62 %
24.12.2016 10:10 7,4 C 7,8 C 6,1 C 96 % 0 lf 1025,1 hPa 0,0 l/m 0 min 0 min 36 W/m 27,2 km/h (4 Bft) 95,65 %
24.12.2016 10:12 7,4 C 7,8 C 6,1 C 96 % 0 lf 1024,8 hPa 0,0 l/m 0 min 0 min 29 W/m 33,5 km/h (5 Bft) 91,49 %
24.12.2016 10:14 7,4 C 7,8 C 5,6 C 95 % 0 lf 1024,7 hPa 0,0 l/m 0 min 0 min 39 W/m 35,6 km/h (5 Bft) 93,62 %
24.12.2016 10:16 7,4 C 7,8 C 6,1 C 95 % 0 lf 1024,8 hPa 0,0 l/m 0 min 0 min 53 W/m 25,1 km/h (4 Bft) 89,36 %
24.12.2016 10:18 7,4 C 7,8 C 6,1 C 95 % 0 lf 1024,7 hPa 0,0 l/m 0 min 0 min 57 W/m 31,4 km/h (5 Bft) 95,74 %
24.12.2016 10:20 7,4 C 7,8 C 6,1 C 95 % 0 lf 1024,7 hPa 0,0 l/m 0 min 0 min 55 W/m 27,2 km/h (4 Bft) 97,87 %
24.12.2016 10:22 7,4 C 8,3 C 6,1 C 95 % 0 lf 1024,6 hPa 0,0 l/m 0 min 0 min 55 W/m 27,2 km/h (4 Bft) 97,83 %
24.12.2016 10:24 7,4 C 8,3 C 6,1 C 95 % 0 lf 1024,7 hPa 0,0 l/m 0 min 0 min 61 W/m 25,1 km/h (4 Bft) 93,62 %
24.12.2016 10:26 7,4 C 8,3 C 6,1 C 95 % 0 lf 1024,8 hPa 0,0 l/m 0 min 0 min 78 W/m 25,1 km/h (4 Bft) 91,49 %
24.12.2016 10:28 7,5 C 8,3 C 6,1 C 95 % 0 lf 1024,9 hPa 0,0 l/m 2 min 0 min 113 W/m 18,8 km/h (3 Bft) 89,36 %
24.12.2016 10:30 7,5 C 8,3 C 6,1 C 95 % 0 lf 1024,8 hPa 0,0 l/m 0 min 0 min 103 W/m 31,4 km/h (5 Bft) 95,74 %
24.12.2016 10:32 7,5 C 8,3 C 6,1 C 95 % 0 lf 1024,9 hPa 0,0 l/m 0 min 0 min 83 W/m 31,4 km/h (5 Bft) 97,87 %
24.12.2016 10:34 7,6 C 8,3 C 6,7 C 95 % 0 lf 1024,8 hPa 0,0 l/m 0 min 0 min 86 W/m 23,0 km/h (4 Bft) 91,30 %
24.12.2016 10:36 7,6 C 8,3 C 6,7 C 95 % 0 lf 1024,7 hPa 0,0 l/m 0 min 0 min 84 W/m 25,1 km/h (4 Bft) 95,74 %
24.12.2016 10:38 7,6 C 8,3 C 6,7 C 95 % 0 lf 1024,7 hPa 0,0 l/m 0 min 0 min 88 W/m 25,1 km/h (4 Bft) 93,62 %
24.12.2016 10:40 7,6 C 8,9 C 6,7 C 95 % 0 lf 1024,8 hPa 0,0 l/m 0 min 0 min 103 W/m 29,3 km/h (5 Bft) 93,62 %
24.12.2016 10:42 7,7 C 8,9 C 6,7 C 95 % 0 lf 1025,0 hPa 0,0 l/m 0 min 0 min 80 W/m 20,9 km/h (4 Bft) 89,36 %
24.12.2016 10:44 7,7 C 8,9 C 6,7 C 94 % 0 lf 1025,0 hPa 0,0 l/m 0 min 0 min 59 W/m 12,6 km/h (3 Bft) 93,48 %
24.12.2016 10:46 7,7 C 8,9 C 6,7 C 94 % 0 lf 1025,2 hPa 0,0 l/m 0 min 0 min 59 W/m 25,1 km/h (4 Bft) 93,62 %
24.12.2016 10:48 7,7 C 8,9 C 6,7 C 94 % 0 lf 1025,1 hPa 0,0 l/m 0 min 0 min 71 W/m 25,1 km/h (4 Bft) 95,74 %
24.12.2016 10:50 7,7 C 8,3 C 6,7 C 94 % 0 lf 1025,0 hPa 0,0 l/m 0 min 0 min 63 W/m 23,0 km/h (4 Bft) 93,62 %
24.12.2016 10:52 7,7 C 8,3 C 6,1 C 94 % 0 lf 1025,1 hPa 0,0 l/m 0 min 0 min 45 W/m 25,1 km/h (4 Bft) 95,74 %
24.12.2016 10:54 7,7 C 8,3 C 6,1 C 94 % 0 lf 1025,1 hPa 0,0 l/m 0 min 0 min 32 W/m 18,8 km/h (3 Bft) 95,74 %
24.12.2016 10:56 7,7 C 8,3 C 6,1 C 94 % 0 lf 1025,0 hPa 0,0 l/m 0 min 0 min 26 W/m 20,9 km/h (4 Bft) 97,83 %
24.12.2016 10:58 7,7 C 8,3 C 6,1 C 94 % 0 lf 1025,1 hPa 0,0 l/m 0 min 0 min 23 W/m 23,0 km/h (4 Bft) 95,74 %
24.12.2016 11:00 7,7 C 7,8 C 6,1 C 94 % 0 lf 1025,0 hPa 0,0 l/m 0 min 0 min 20 W/m 18,8 km/h (3 Bft) 93,62 %
24.12.2016 11:02 7,7 C 7,8 C 6,1 C 94 % 0 lf 1025,0 hPa 0,0 l/m 0 min 0 min 21 W/m 20,9 km/h (4 Bft) 100,00 %
24.12.2016 11:04 7,7 C 7,8 C 6,1 C 94 % 0 lf 1025,1 hPa 0,0 l/m 0 min 0 min 26 W/m 14,6 km/h (3 Bft) 95,74 %
24.12.2016 11:06 7,7 C 7,8 C 6,1 C 94 % 0 lf 1025,0 hPa 0,0 l/m 0 min 0 min 33 W/m 20,9 km/h (4 Bft) 97,87 %
24.12.2016 11:08 7,7 C 7,8 C 6,1 C 94 % 0 lf 1025,0 hPa 0,0 l/m 0 min 0 min 39 W/m 14,6 km/h (3 Bft) 97,83 %
24.12.2016 11:10 7,6 C 7,8 C 5,6 C 94 % 0 lf 1025,1 hPa 0,0 l/m 0 min 0 min 46 W/m 27,2 km/h (4 Bft) 97,87 %
24.12.2016 11:12 7,6 C 7,8 C 5,6 C 94 % 0 lf 1025,1 hPa 0,0 l/m 0 min 0 min 43 W/m 16,7 km/h (3 Bft) 95,74 %
24.12.2016 11:14 7,6 C 7,8 C 5,6 C 93 % 0 lf 1025,1 hPa 0,0 l/m 0 min 0 min 53 W/m 20,9 km/h (4 Bft) 97,87 %
24.12.2016 11:16 7,6 C 8,3 C 5,6 C 93 % 0 lf 1025,2 hPa 0,0 l/m 0 min 0 min 65 W/m 18,8 km/h (3 Bft) 95,74 %
24.12.2016 11:18 7,6 C 8,3 C 5,6 C 93 % 0 lf 1025,3 hPa 0,0 l/m 0 min 0 min 74 W/m 16,7 km/h (3 Bft) 97,87 %
24.12.2016 11:20 7,6 C 8,3 C 6,1 C 93 % 0 lf 1025,3 hPa 0,0 l/m 0 min 0 min 89 W/m 14,6 km/h (3 Bft) 95,65 %
24.12.2016 11:22 7,6 C 8,3 C 6,1 C 93 % 0 lf 1025,1 hPa 0,0 l/m 0 min 0 min 97 W/m 14,6 km/h (3 Bft) 93,62 %
24.12.2016 11:24 7,6 C 8,3 C 6,1 C 93 % 0 lf 1025,0 hPa 0,0 l/m 0 min 0 min 103 W/m 20,9 km/h (4 Bft) 97,87 %
24.12.2016 11:26 7,6 C 8,9 C 6,1 C 93 % 0 lf 1025,2 hPa 0,0 l/m 0 min 0 min 96 W/m 20,9 km/h (4 Bft) 93,62 %
24.12.2016 11:28 7,6 C 8,3 C 6,1 C 93 % 0 lf 1025,2 hPa 0,0 l/m 0 min 0 min 83 W/m 25,1 km/h (4 Bft) 97,87 %
24.12.2016 11:30 7,6 C 8,9 C 6,1 C 93 % 0 lf 1025,2 hPa 0,0 l/m 0 min 0 min 91 W/m 20,9 km/h (4 Bft) 97,87 %
24.12.2016 11:32 7,6 C 8,9 C 6,1 C 93 % 0 lf 1025,2 hPa 0,0 l/m 0 min 0 min 106 W/m 20,9 km/h (4 Bft) 97,83 %
24.12.2016 11:34 7,6 C 8,9 C 6,1 C 93 % 0 lf 1025,2 hPa 0,0 l/m 0 min 0 min 108 W/m 23,0 km/h (4 Bft) 93,62 %
24.12.2016 11:36 7,6 C 8,9 C 6,7 C 93 % 0 lf 1025,2 hPa 0,0 l/m 0 min 0 min 112 W/m 14,6 km/h (3 Bft) 97,87 %
24.12.2016 11:38 7,6 C 8,9 C 6,1 C 92 % 0 lf 1025,3 hPa 0,0 l/m 0 min 0 min 103 W/m 27,2 km/h (4 Bft) 97,87 %
24.12.2016 11:40 7,6 C 8,9 C 6,1 C 92 % 0 lf 1025,2 hPa 0,0 l/m 0 min 0 min 104 W/m 27,2 km/h (4 Bft) 97,87 %
24.12.2016 11:42 7,6 C 8,3 C 6,1 C 92 % 0 lf 1025,2 hPa 0,0 l/m 0 min 0 min 99 W/m 27,2 km/h (4 Bft) 95,74 %
24.12.2016 11:44 7,6 C 8,9 C 6,1 C 92 % 0 lf 1025,1 hPa 0,0 l/m 0 min 0 min 100 W/m 27,2 km/h (4 Bft) 100,00 %
24.12.2016 11:46 7,6 C 8,9 C 6,1 C 92 % 0 lf 1025,0 hPa 0,0 l/m 0 min 0 min 95 W/m 20,9 km/h (4 Bft) 100,00 %
24.12.2016 11:48 7,7 C 8,3 C 6,1 C 91 % 0 lf 1024,9 hPa 0,0 l/m 0 min 0 min 92 W/m 27,2 km/h (4 Bft) 93,62 %
24.12.2016 11:50 7,6 C 8,3 C 6,1 C 91 % 0 lf 1024,8 hPa 0,0 l/m 0 min 0 min 96 W/m 29,3 km/h (5 Bft) 100,00 %
24.12.2016 11:52 7,7 C 8,3 C 6,1 C 91 % 0 lf 1024,8 hPa 0,0 l/m 0 min 0 min 103 W/m 23,0 km/h (4 Bft) 97,87 %
24.12.2016 11:54 7,7 C 8,9 C 6,1 C 91 % 0 lf 1024,7 hPa 0,0 l/m 0 min 0 min 102 W/m 16,7 km/h (3 Bft) 93,62 %
24.12.2016 11:56 7,7 C 8,3 C 6,1 C 91 % 0 lf 1024,8 hPa 0,0 l/m 0 min 0 min 99 W/m 31,4 km/h (5 Bft) 100,00 %
24.12.2016 11:58 7,7 C 8,9 C 6,1 C 90 % 0 lf 1024,7 hPa 0,0 l/m 0 min 0 min 112 W/m 33,5 km/h (5 Bft) 97,87 %
24.12.2016 12:00 7,6 C 8,9 C 6,1 C 90 % 0 lf 1024,6 hPa 0,0 l/m 0 min 0 min 131 W/m 31,4 km/h (5 Bft) 97,87 %
24.12.2016 12:02 7,7 C 8,9 C 6,7 C 90 % 0 lf 1024,7 hPa 0,0 l/m 2 min 0 min 147 W/m 33,5 km/h (5 Bft) 95,74 %
24.12.2016 12:06 7,7 C 9,4 C 6,7 C 89 % 0 lf 1024,6 hPa 0,0 l/m 2 min 0 min 171 W/m 39,7 km/h (6 Bft) 98,94 %
24.12.2016 12:08 7,7 C 9,4 C 6,7 C 89 % 0 lf 1024,7 hPa 0,0 l/m 2 min 0 min 192 W/m 33,5 km/h (5 Bft) 93,62 %
24.12.2016 12:10 7,7 C 10,0 C 6,7 C 89 % 0 lf 1024,7 hPa 0,0 l/m 2 min 0 min 206 W/m 39,7 km/h (6 Bft) 93,62 %
24.12.2016 12:12 7,8 C 10,6 C 6,7 C 89 % 0 lf 1024,7 hPa 0,0 l/m 2 min 0 min 153 W/m 29,3 km/h (5 Bft) 91,49 %
24.12.2016 12:14 7,8 C 10,6 C 7,2 C 89 % 0 lf 1024,7 hPa 0,0 l/m 2 min 0 min 190 W/m 37,7 km/h (5 Bft) 95,74 %
24.12.2016 12:16 7,8 C 11,1 C 7,2 C 88 % 0 lf 1024,7 hPa 0,0 l/m 2 min 0 min 250 W/m 27,2 km/h (4 Bft) 95,74 %
24.12.2016 12:18 7,9 C 10,6 C 7,2 C 88 % 0 lf 1024,7 hPa 0,0 l/m 2 min 0 min 185 W/m 25,1 km/h (4 Bft) 95,65 %
24.12.2016 12:20 7,9 C 10,6 C 7,2 C 88 % 0 lf 1024,7 hPa 0,0 l/m 2 min 0 min 191 W/m 35,6 km/h (5 Bft) 97,87 %
24.12.2016 12:22 7,9 C 10,6 C 7,2 C 88 % 0 lf 1024,7 hPa 0,0 l/m 2 min 0 min 189 W/m 27,2 km/h (4 Bft) 91,49 %
24.12.2016 12:24 7,9 C 10,0 C 7,2 C 87 % 0 lf 1024,7 hPa 0,0 l/m 2 min 0 min 154 W/m 37,7 km/h (5 Bft) 93,62 %
24.12.2016 12:26 7,9 C 9,4 C 7,2 C 87 % 0 lf 1024,7 hPa 0,0 l/m 2 min 0 min 152 W/m 41,8 km/h (6 Bft) 95,74 %
24.12.2016 12:28 7,9 C 9,4 C 6,7 C 87 % 0 lf 1024,7 hPa 0,0 l/m 2 min 0 min 164 W/m 35,6 km/h (5 Bft) 95,74 %
24.12.2016 12:30 7,9 C 9,4 C 6,7 C 86 % 0 lf 1024,7 hPa 0,0 l/m 0 min 0 min 146 W/m 39,7 km/h (6 Bft) 93,48 %
24.12.2016 12:32 7,9 C 9,4 C 6,7 C 86 % 0 lf 1024,8 hPa 0,0 l/m 0 min 0 min 133 W/m 25,1 km/h (4 Bft) 93,62 %
24.12.2016 12:34 7,9 C 9,4 C 6,7 C 86 % 0 lf 1024,9 hPa 0,0 l/m 0 min 0 min 122 W/m 37,7 km/h (5 Bft) 95,74 %
24.12.2016 12:36 7,9 C 9,4 C 6,7 C 86 % 0 lf 1024,9 hPa 0,0 l/m 0 min 0 min 120 W/m 23,0 km/h (4 Bft) 93,62 %
24.12.2016 12:38 7,9 C 9,4 C 6,7 C 86 % 0 lf 1024,8 hPa 0,0 l/m 0 min 0 min 123 W/m 43,9 km/h (6 Bft) 91,49 %
24.12.2016 12:40 7,9 C 9,4 C 6,7 C 86 % 0 lf 1024,9 hPa 0,0 l/m 0 min 0 min 118 W/m 27,2 km/h (4 Bft) 89,36 %
24.12.2016 12:42 7,9 C 8,9 C 6,7 C 85 % 0 lf 1025,0 hPa 0,0 l/m 0 min 0 min 111 W/m 35,6 km/h (5 Bft) 93,48 %
24.12.2016 12:44 7,8 C 8,9 C 6,7 C 85 % 0 lf 1025,0 hPa 0,0 l/m 0 min 0 min 106 W/m 35,6 km/h (5 Bft) 95,74 %
24.12.2016 12:46 7,8 C 8,9 C 6,7 C 85 % 0 lf 1025,0 hPa 0,0 l/m 0 min 0 min 110 W/m 31,4 km/h (5 Bft) 93,62 %
24.12.2016 12:48 7,8 C 9,4 C 6,7 C 85 % 0 lf 1024,9 hPa 0,0 l/m 0 min 0 min 125 W/m 27,2 km/h (4 Bft) 95,74 %
24.12.2016 12:50 7,8 C 9,4 C 6,7 C 85 % 0 lf 1024,9 hPa 0,0 l/m 0 min 0 min 123 W/m 25,1 km/h (4 Bft) 95,74 %
24.12.2016 12:52 7,8 C 9,4 C 6,1 C 85 % 0 lf 1025,0 hPa 0,0 l/m 0 min 0 min 113 W/m 18,8 km/h (3 Bft) 91,49 %
24.12.2016 12:54 7,8 C 8,9 C 6,1 C 85 % 0 lf 1025,1 hPa 0,0 l/m 0 min 0 min 101 W/m 29,3 km/h (5 Bft) 95,65 %
24.12.2016 12:56 7,8 C 8,9 C 6,1 C 85 % 0 lf 1025,0 hPa 0,0 l/m 0 min 0 min 100 W/m 29,3 km/h (5 Bft) 91,49 %
24.12.2016 12:58 7,7 C 8,9 C 6,1 C 85 % 0 lf 1025,1 hPa 0,0 l/m 0 min 0 min 108 W/m 29,3 km/h (5 Bft) 95,74 %
24.12.2016 13:00 7,7 C 8,9 C 6,1 C 85 % 0 lf 1024,9 hPa 0,0 l/m 0 min 0 min 112 W/m 39,7 km/h (6 Bft) 97,87 %
24.12.2016 13:02 7,7 C 8,9 C 6,1 C 85 % 0 lf 1025,0 hPa 0,0 l/m 0 min 0 min 101 W/m 31,4 km/h (5 Bft) 93,62 %
24.12.2016 13:04 7,7 C 8,3 C 6,1 C 85 % 0 lf 1025,1 hPa 0,0 l/m 0 min 0 min 76 W/m 37,7 km/h (5 Bft) 93,48 %
24.12.2016 13:06 7,7 C 8,3 C 6,1 C 85 % 0 lf 1025,0 hPa 0,0 l/m 0 min 0 min 80 W/m 27,2 km/h (4 Bft) 97,87 %
24.12.2016 13:08 7,7 C 8,3 C 6,1 C 84 % 0 lf 1024,9 hPa 0,0 l/m 0 min 0 min 87 W/m 23,0 km/h (4 Bft) 97,87 %
24.12.2016 13:10 7,7 C 8,3 C 6,1 C 84 % 0 lf 1025,0 hPa 0,0 l/m 0 min 0 min 87 W/m 35,6 km/h (5 Bft) 97,87 %
24.12.2016 13:12 7,6 C 8,3 C 6,1 C 84 % 0 lf 1024,9 hPa 0,0 l/m 0 min 0 min 82 W/m 33,5 km/h (5 Bft) 100,00 %
24.12.2016 13:14 7,6 C 8,3 C 6,1 C 84 % 0 lf 1024,9 hPa 0,0 l/m 0 min 0 min 76 W/m 29,3 km/h (5 Bft) 95,74 %
24.12.2016 13:16 7,6 C 8,3 C 5,6 C 84 % 0 lf 1024,9 hPa 0,0 l/m 0 min 0 min 71 W/m 29,3 km/h (5 Bft) 97,83 %
24.12.2016 13:18 7,6 C 8,3 C 5,6 C 84 % 0 lf 1024,9 hPa 0,0 l/m 0 min 0 min 73 W/m 27,2 km/h (4 Bft) 93,62 %
24.12.2016 13:20 7,6 C 8,3 C 5,6 C 84 % 0 lf 1024,8 hPa 0,0 l/m 0 min 0 min 74 W/m 25,1 km/h (4 Bft) 93,62 %
24.12.2016 13:22 7,6 C 8,3 C 6,1 C 84 % 0 lf 1024,8 hPa 0,0 l/m 0 min 0 min 82 W/m 29,3 km/h (5 Bft) 97,87 %
24.12.2016 13:24 7,5 C 8,3 C 6,1 C 84 % 0 lf 1024,7 hPa 0,0 l/m 0 min 0 min 94 W/m 29,3 km/h (5 Bft) 95,74 %
24.12.2016 13:26 7,5 C 8,3 C 6,1 C 84 % 0 lf 1024,7 hPa 0,0 l/m 0 min 0 min 101 W/m 29,3 km/h (5 Bft) 97,87 %
24.12.2016 13:28 7,5 C 8,9 C 6,1 C 84 % 0 lf 1024,8 hPa 0,0 l/m 0 min 0 min 110 W/m 25,1 km/h (4 Bft) 97,83 %
24.12.2016 13:30 7,5 C 8,9 C 6,1 C 84 % 0 lf 1024,7 hPa 0,0 l/m 0 min 0 min 124 W/m 20,9 km/h (4 Bft) 95,74 %
24.12.2016 13:32 7,5 C 8,9 C 6,1 C 84 % 0 lf 1024,7 hPa 0,0 l/m 0 min 0 min 102 W/m 20,9 km/h (4 Bft) 95,74 %
24.12.2016 13:34 7,6 C 8,9 C 6,1 C 84 % 0 lf 1024,7 hPa 0,0 l/m 0 min 0 min 99 W/m 16,7 km/h (3 Bft) 97,87 %
24.12.2016 13:36 7,6 C 8,9 C 6,1 C 84 % 0 lf 1024,7 hPa 0,0 l/m 0 min 0 min 110 W/m 23,0 km/h (4 Bft) 97,87 %
24.12.2016 13:38 7,6 C 8,9 C 6,1 C 84 % 0 lf 1024,6 hPa 0,0 l/m 0 min 0 min 117 W/m 29,3 km/h (5 Bft) 95,74 %
24.12.2016 13:40 7,6 C 9,4 C 6,1 C 84 % 0 lf 1024,6 hPa 0,0 l/m 0 min 0 min 126 W/m 25,1 km/h (4 Bft) 97,83 %
24.12.2016 13:42 7,6 C 9,4 C 6,1 C 84 % 0 lf 1024,5 hPa 0,0 l/m 0 min 0 min 126 W/m 29,3 km/h (5 Bft) 97,87 %
24.12.2016 13:44 7,6 C 9,4 C 6,1 C 84 % 0 lf 1024,5 hPa 0,0 l/m 0 min 0 min 116 W/m 18,8 km/h (3 Bft) 95,74 %
24.12.2016 13:46 7,6 C 9,4 C 6,1 C 84 % 0 lf 1024,4 hPa 0,0 l/m 0 min 0 min 102 W/m 31,4 km/h (5 Bft) 95,74 %
24.12.2016 13:48 7,6 C 8,9 C 6,1 C 83 % 0 lf 1024,4 hPa 0,0 l/m 0 min 0 min 95 W/m 29,3 km/h (5 Bft) 97,87 %
24.12.2016 13:50 7,6 C 8,9 C 6,1 C 83 % 0 lf 1024,3 hPa 0,0 l/m 0 min 0 min 96 W/m 27,2 km/h (4 Bft) 100,00 %
24.12.2016 13:52 7,6 C 8,9 C 6,1 C 83 % 0 lf 1024,3 hPa 0,0 l/m 0 min 0 min 101 W/m 33,5 km/h (5 Bft) 93,48 %
24.12.2016 13:54 7,6 C 8,9 C 6,7 C 83 % 0 lf 1024,3 hPa 0,0 l/m 0 min 0 min 107 W/m 35,6 km/h (5 Bft) 95,74 %
24.12.2016 13:56 7,6 C 8,9 C 6,7 C 83 % 0 lf 1024,5 hPa 0,0 l/m 0 min 0 min 110 W/m 35,6 km/h (5 Bft) 95,74 %
24.12.2016 13:58 7,7 C 8,9 C 6,7 C 83 % 0 lf 1024,6 hPa 0,0 l/m 0 min 0 min 106 W/m 33,5 km/h (5 Bft) 100,00 %
24.12.2016 14:00 7,7 C 8,9 C 6,7 C 83 % 0 lf 1024,7 hPa 0,0 l/m 0 min 0 min 105 W/m 27,2 km/h (4 Bft) 97,87 %
24.12.2016 14:02 7,7 C 8,9 C 6,7 C 83 % 0 lf 1024,7 hPa 0,0 l/m 0 min 0 min 109 W/m 29,3 km/h (5 Bft) 97,83 %
24.12.2016 14:04 7,7 C 8,9 C 6,7 C 83 % 0 lf 1024,7 hPa 0,0 l/m 0 min 0 min 113 W/m 29,3 km/h (5 Bft) 97,87 %
24.12.2016 14:06 7,7 C 8,9 C 6,7 C 83 % 0 lf 1024,7 hPa 0,0 l/m 0 min 0 min 110 W/m 25,1 km/h (4 Bft) 100,00 %
24.12.2016 14:08 7,7 C 8,9 C 6,7 C 83 % 0 lf 1024,7 hPa 0,0 l/m 0 min 0 min 106 W/m 25,1 km/h (4 Bft) 95,74 %
24.12.2016 14:10 7,7 C 8,9 C 6,7 C 83 % 0 lf 1024,7 hPa 0,0 l/m 0 min 0 min 104 W/m 29,3 km/h (5 Bft) 95,74 %
24.12.2016 14:12 7,7 C 8,3 C 6,7 C 83 % 0 lf 1024,8 hPa 0,0 l/m 0 min 0 min 102 W/m 37,7 km/h (5 Bft) 97,87 %
24.12.2016 14:14 7,7 C 8,9 C 6,7 C 83 % 0 lf 1024,7 hPa 0,0 l/m 0 min 0 min 99 W/m 29,3 km/h (5 Bft) 95,65 %
24.12.2016 14:16 7,7 C 8,9 C 6,7 C 83 % 0 lf 1024,7 hPa 0,0 l/m 0 min 0 min 97 W/m 29,3 km/h (5 Bft) 100,00 %
24.12.2016 14:18 7,7 C 8,3 C 6,7 C 83 % 0 lf 1024,7 hPa 0,0 l/m 0 min 0 min 91 W/m 37,7 km/h (5 Bft) 95,74 %
24.12.2016 14:20 7,7 C 8,3 C 6,7 C 82 % 0 lf 1024,7 hPa 0,0 l/m 0 min 0 min 89 W/m 39,7 km/h (6 Bft) 97,87 %
24.12.2016 14:22 7,7 C 8,3 C 6,7 C 82 % 0 lf 1024,7 hPa 0,0 l/m 0 min 0 min 88 W/m 31,4 km/h (5 Bft) 91,49 %
24.12.2016 14:24 7,7 C 8,3 C 6,7 C 82 % 0 lf 1024,7 hPa 0,0 l/m 0 min 0 min 87 W/m 25,1 km/h (4 Bft) 95,74 %
24.12.2016 14:26 7,7 C 8,3 C 6,7 C 82 % 0 lf 1024,7 hPa 0,0 l/m 0 min 0 min 84 W/m 29,3 km/h (5 Bft) 97,83 %
24.12.2016 14:28 7,7 C 8,3 C 6,1 C 82 % 0 lf 1024,7 hPa 0,0 l/m 0 min 0 min 77 W/m 29,3 km/h (5 Bft) 93,62 %
24.12.2016 14:30 7,7 C 8,3 C 6,1 C 82 % 0 lf 1024,7 hPa 0,0 l/m 0 min 0 min 75 W/m 27,2 km/h (4 Bft) 91,49 %
24.12.2016 14:32 7,7 C 8,3 C 6,1 C 82 % 0 lf 1024,7 hPa 0,0 l/m 0 min 0 min 74 W/m 35,6 km/h (5 Bft) 91,49 %
24.12.2016 14:34 7,7 C 8,3 C 6,1 C 82 % 0 lf 1024,7 hPa 0,0 l/m 0 min 0 min 76 W/m 37,7 km/h (5 Bft) 95,74 %
24.12.2016 14:36 7,7 C 8,3 C 6,1 C 82 % 0 lf 1024,7 hPa 0,0 l/m 0 min 0 min 77 W/m 33,5 km/h (5 Bft) 95,74 %
24.12.2016 14:38 7,7 C 8,3 C 6,1 C 82 % 0 lf 1024,7 hPa 0,0 l/m 0 min 0 min 77 W/m 29,3 km/h (5 Bft) 93,48 %
24.12.2016 14:40 7,7 C 8,3 C 6,1 C 82 % 0 lf 1024,7 hPa 0,0 l/m 0 min 0 min 77 W/m 29,3 km/h (5 Bft) 93,62 %
24.12.2016 14:42 7,7 C 8,3 C 6,1 C 82 % 0 lf 1024,7 hPa 0,0 l/m 0 min 0 min 73 W/m 31,4 km/h (5 Bft) 93,62 %
24.12.2016 14:44 7,7 C 8,3 C 6,1 C 82 % 0 lf 1024,7 hPa 0,0 l/m 0 min 0 min 69 W/m 31,4 km/h (5 Bft) 91,49 %
24.12.2016 14:46 7,7 C 8,3 C 6,1 C 82 % 0 lf 1024,7 hPa 0,0 l/m 0 min 0 min 69 W/m 20,9 km/h (4 Bft) 93,62 %
24.12.2016 14:48 7,7 C 8,3 C 6,1 C 82 % 0 lf 1024,7 hPa 0,0 l/m 0 min 0 min 69 W/m 31,4 km/h (5 Bft) 91,49 %
24.12.2016 14:50 7,7 C 8,3 C 6,1 C 82 % 0 lf 1024,7 hPa 0,0 l/m 0 min 0 min 70 W/m 35,6 km/h (5 Bft) 95,65 %
24.12.2016 14:52 7,7 C 8,3 C 6,1 C 82 % 0 lf 1024,7 hPa 0,0 l/m 0 min 0 min 69 W/m 35,6 km/h (5 Bft) 97,87 %
24.12.2016 14:54 7,7 C 8,3 C 6,1 C 82 % 0 lf 1024,7 hPa 0,0 l/m 0 min 0 min 69 W/m 31,4 km/h (5 Bft) 93,62 %
24.12.2016 14:56 7,7 C 8,3 C 6,1 C 82 % 0 lf 1024,7 hPa 0,0 l/m 0 min 0 min 69 W/m 27,2 km/h (4 Bft) 95,74 %
24.12.2016 14:58 7,7 C 8,3 C 6,1 C 82 % 0 lf 1024,7 hPa 0,0 l/m 0 min 0 min 69 W/m 31,4 km/h (5 Bft) 93,62 %
24.12.2016 15:00 7,7 C 8,3 C 6,1 C 82 % 0 lf 1024,7 hPa 0,0 l/m 0 min 0 min 69 W/m 33,5 km/h (5 Bft) 93,62 %
24.12.2016 15:02 7,7 C 8,3 C 6,1 C 82 % 0 lf 1024,6 hPa 0,0 l/m 0 min 0 min 68 W/m 27,2 km/h (4 Bft) 97,83 %
24.12.2016 15:04 7,7 C 8,3 C 6,1 C 82 % 0 lf 1024,7 hPa 0,0 l/m 0 min 0 min 66 W/m 39,7 km/h (6 Bft) 95,74 %
24.12.2016 15:06 7,7 C 8,3 C 6,1 C 82 % 0 lf 1024,7 hPa 0,0 l/m 0 min 0 min 64 W/m 35,6 km/h (5 Bft) 95,74 %
24.12.2016 15:08 7,7 C 8,3 C 6,1 C 82 % 0 lf 1024,7 hPa 0,0 l/m 0 min 0 min 63 W/m 29,3 km/h (5 Bft) 93,62 %
24.12.2016 15:10 7,7 C 8,3 C 6,1 C 82 % 0 lf 1024,7 hPa 0,0 l/m 0 min 0 min 62 W/m 29,3 km/h (5 Bft) 93,62 %
24.12.2016 15:12 7,7 C 8,3 C 6,1 C 82 % 0 lf 1024,7 hPa 0,0 l/m 0 min 0 min 61 W/m 31,4 km/h (5 Bft) 93,48 %
24.12.2016 15:14 7,7 C 8,3 C 6,1 C 82 % 0 lf 1024,7 hPa 0,0 l/m 0 min 0 min 58 W/m 33,5 km/h (5 Bft) 95,74 %
24.12.2016 15:16 7,7 C 8,3 C 6,1 C 82 % 0 lf 1024,8 hPa 0,0 l/m 0 min 0 min 55 W/m 25,1 km/h (4 Bft) 91,49 %
24.12.2016 15:18 7,7 C 7,8 C 6,1 C 82 % 0 lf 1024,8 hPa 0,0 l/m 0 min 0 min 52 W/m 31,4 km/h (5 Bft) 93,62 %
24.12.2016 15:20 7,7 C 7,8 C 6,1 C 82 % 0 lf 1024,7 hPa 0,0 l/m 0 min 0 min 49 W/m 25,1 km/h (4 Bft) 95,74 %
24.12.2016 15:22 7,7 C 7,8 C 6,1 C 82 % 0 lf 1024,8 hPa 0,0 l/m 0 min 0 min 47 W/m 27,2 km/h (4 Bft) 95,74 %
24.12.2016 15:24 7,6 C 7,8 C 6,1 C 82 % 0 lf 1024,7 hPa 0,0 l/m 0 min 0 min 46 W/m 29,3 km/h (5 Bft) 95,65 %
24.12.2016 15:26 7,7 C 7,8 C 6,1 C 82 % 0 lf 1024,7 hPa 0,0 l/m 0 min 0 min 43 W/m 31,4 km/h (5 Bft) 97,87 %
24.12.2016 15:28 7,7 C 7,8 C 6,1 C 82 % 0 lf 1024,7 hPa 0,0 l/m 0 min 0 min 42 W/m 27,2 km/h (4 Bft) 97,87 %
24.12.2016 15:30 7,7 C 7,8 C 6,1 C 82 % 0 lf 1024,8 hPa 0,0 l/m 0 min 0 min 40 W/m 31,4 km/h (5 Bft) 97,87 %
24.12.2016 15:32 7,7 C 7,8 C 6,1 C 82 % 0 lf 1024,8 hPa 0,0 l/m 0 min 0 min 38 W/m 29,3 km/h (5 Bft) 93,62 %
24.12.2016 15:34 7,6 C 7,8 C 6,1 C 82 % 0 lf 1024,8 hPa 0,0 l/m 0 min 0 min 36 W/m 35,6 km/h (5 Bft) 95,74 %
24.12.2016 15:36 7,6 C 7,8 C 6,1 C 82 % 0 lf 1024,7 hPa 0,0 l/m 0 min 0 min 35 W/m 23,0 km/h (4 Bft) 100,00 %
24.12.2016 15:38 7,6 C 7,8 C 6,1 C 82 % 0 lf 1024,7 hPa 0,0 l/m 0 min 0 min 33 W/m 20,9 km/h (4 Bft) 97,87 %
24.12.2016 15:40 7,6 C 7,8 C 6,1 C 83 % 0 lf 1024,6 hPa 0,0 l/m 0 min 0 min 32 W/m 29,3 km/h (5 Bft) 97,87 %
24.12.2016 15:42 7,6 C 7,8 C 6,1 C 83 % 0 lf 1024,6 hPa 0,0 l/m 0 min 0 min 32 W/m 33,5 km/h (5 Bft) 95,74 %
24.12.2016 15:44 7,6 C 7,8 C 6,1 C 83 % 0 lf 1024,7 hPa 0,0 l/m 0 min 0 min 30 W/m 27,2 km/h (4 Bft) 93,62 %
24.12.2016 15:46 7,6 C 7,8 C 6,1 C 83 % 0 lf 1024,7 hPa 0,0 l/m 0 min 0 min 29 W/m 27,2 km/h (4 Bft) 93,62 %
24.12.2016 15:48 7,6 C 7,8 C 6,1 C 83 % 0 lf 1024,8 hPa 0,0 l/m 0 min 0 min 27 W/m 31,4 km/h (5 Bft) 97,83 %
24.12.2016 15:50 7,6 C 7,8 C 6,1 C 83 % 0 lf 1024,9 hPa 0,0 l/m 0 min 0 min 26 W/m 35,6 km/h (5 Bft) 93,62 %
24.12.2016 15:52 7,6 C 7,8 C 6,1 C 83 % 0 lf 1024,9 hPa 0,0 l/m 0 min 0 min 25 W/m 29,3 km/h (5 Bft) 93,62 %
24.12.2016 15:54 7,6 C 7,8 C 6,1 C 83 % 0 lf 1024,9 hPa 0,0 l/m 0 min 0 min 24 W/m 29,3 km/h (5 Bft) 91,49 %
24.12.2016 15:56 7,6 C 7,8 C 6,1 C 82 % 0 lf 1024,9 hPa 0,0 l/m 0 min 0 min 21 W/m 23,0 km/h (4 Bft) 95,74 %
24.12.2016 15:58 7,6 C 7,8 C 6,1 C 82 % 0 lf 1024,8 hPa 0,0 l/m 0 min 0 min 19 W/m 33,5 km/h (5 Bft) 97,87 %
24.12.2016 16:00 7,6 C 7,8 C 5,6 C 82 % 0 lf 1024,7 hPa 0,0 l/m 0 min 0 min 18 W/m 31,4 km/h (5 Bft) 95,65 %
24.12.2016 16:02 7,6 C 7,8 C 5,6 C 83 % 0 lf 1024,8 hPa 0,0 l/m 0 min 0 min 18 W/m 27,2 km/h (4 Bft) 97,87 %
24.12.2016 16:04 7,6 C 7,8 C 5,6 C 83 % 0 lf 1024,8 hPa 0,0 l/m 0 min 0 min 16 W/m 31,4 km/h (5 Bft) 97,87 %
24.12.2016 16:06 7,6 C 7,8 C 5,6 C 83 % 0 lf 1024,9 hPa 0,0 l/m 0 min 0 min 15 W/m 25,1 km/h (4 Bft) 95,74 %
24.12.2016 16:08 7,6 C 7,8 C 5,6 C 83 % 0 lf 1024,9 hPa 0,0 l/m 0 min 0 min 14 W/m 27,2 km/h (4 Bft) 95,74 %
24.12.2016 16:10 7,6 C 7,8 C 5,6 C 83 % 0 lf 1024,8 hPa 0,0 l/m 0 min 0 min 12 W/m 20,9 km/h (4 Bft) 97,87 %
24.12.2016 16:12 7,5 C 7,8 C 5,6 C 83 % 0 lf 1024,7 hPa 0,0 l/m 0 min 0 min 12 W/m 29,3 km/h (5 Bft) 95,65 %
24.12.2016 16:14 7,5 C 7,8 C 5,6 C 83 % 0 lf 1024,7 hPa 0,0 l/m 0 min 0 min 11 W/m 20,9 km/h (4 Bft) 93,62 %
24.12.2016 16:16 7,5 C 7,8 C 5,6 C 83 % 0 lf 1024,7 hPa 0,0 l/m 0 min 0 min 9 W/m 23,0 km/h (4 Bft) 95,74 %
24.12.2016 16:18 7,5 C 7,2 C 5,6 C 83 % 0 lf 1024,6 hPa 0,0 l/m 0 min 0 min 8 W/m 23,0 km/h (4 Bft) 95,74 %
24.12.2016 16:20 7,4 C 7,2 C 5,6 C 83 % 0 lf 1024,5 hPa 0,0 l/m 0 min 0 min 7 W/m 25,1 km/h (4 Bft) 93,62 %
24.12.2016 16:22 7,4 C 7,2 C 5,6 C 83 % 0 lf 1024,5 hPa 0,0 l/m 0 min 0 min 7 W/m 18,8 km/h (3 Bft) 93,62 %
24.12.2016 16:24 7,4 C 7,2 C 5,6 C 83 % 0 lf 1024,6 hPa 0,0 l/m 0 min 0 min 7 W/m 29,3 km/h (5 Bft) 95,65 %
24.12.2016 16:26 7,4 C 7,2 C 5,6 C 83 % 0 lf 1024,6 hPa 0,0 l/m 0 min 0 min 5 W/m 27,2 km/h (4 Bft) 95,74 %
24.12.2016 16:28 7,4 C 7,2 C 5,6 C 83 % 0 lf 1024,7 hPa 0,0 l/m 0 min 0 min 5 W/m 23,0 km/h (4 Bft) 95,74 %
24.12.2016 16:30 7,4 C 7,2 C 5,6 C 83 % 0 lf 1024,8 hPa 0,0 l/m 0 min 0 min 5 W/m 29,3 km/h (5 Bft) 95,74 %
24.12.2016 16:32 7,4 C 7,2 C 5,6 C 83 % 0 lf 1024,7 hPa 0,0 l/m 0 min 0 min 5 W/m 25,1 km/h (4 Bft) 91,49 %
24.12.2016 16:34 7,4 C 7,2 C 5,6 C 83 % 0 lf 1024,7 hPa 0,0 l/m 0 min 0 min 5 W/m 20,9 km/h (4 Bft) 93,48 %
24.12.2016 16:36 7,4 C 7,2 C 5,6 C 83 % 0 lf 1024,7 hPa 0,0 l/m 0 min 0 min 5 W/m 25,1 km/h (4 Bft) 97,87 %
24.12.2016 16:38 7,4 C 7,2 C 5,6 C 83 % 0 lf 1024,7 hPa 0,0 l/m 0 min 0 min 5 W/m 23,0 km/h (4 Bft) 95,74 %
24.12.2016 16:40 7,4 C 7,2 C 5,6 C 83 % 0 lf 1024,8 hPa 0,0 l/m 0 min 0 min 5 W/m 23,0 km/h (4 Bft) 97,87 %
24.12.2016 16:42 7,4 C 7,2 C 5,6 C 83 % 0 lf 1024,7 hPa 0,0 l/m 0 min 0 min 5 W/m 27,2 km/h (4 Bft) 97,87 %
24.12.2016 16:44 7,3 C 7,2 C 5,6 C 83 % 0 lf 1024,8 hPa 0,0 l/m 0 min 0 min 5 W/m 25,1 km/h (4 Bft) 95,74 %
24.12.2016 16:46 7,3 C 7,2 C 5,6 C 83 % 0 lf 1024,8 hPa 0,0 l/m 0 min 0 min 0 W/m 20,9 km/h (4 Bft) 91,30 %
24.12.2016 16:48 7,3 C 7,2 C 5,6 C 83 % 0 lf 1024,8 hPa 0,0 l/m 0 min 0 min 0 W/m 27,2 km/h (4 Bft) 97,87 %
24.12.2016 16:50 7,3 C 7,2 C 5,6 C 83 % 0 lf 1024,9 hPa 0,0 l/m 0 min 0 min 0 W/m 23,0 km/h (4 Bft) 97,87 %
24.12.2016 16:52 7,3 C 7,2 C 5,6 C 83 % 0 lf 1024,9 hPa 0,0 l/m 0 min 0 min 0 W/m 29,3 km/h (5 Bft) 93,62 %
24.12.2016 16:54 7,3 C 7,2 C 5,6 C 83 % 0 lf 1024,8 hPa 0,0 l/m 0 min 0 min 0 W/m 25,1 km/h (4 Bft) 97,87 %
24.12.2016 16:56 7,3 C 7,2 C 5,6 C 83 % 0 lf 1024,8 hPa 0,0 l/m 0 min 0 min 0 W/m 18,8 km/h (3 Bft) 100,00 %
24.12.2016 16:58 7,3 C 7,2 C 5,6 C 83 % 0 lf 1024,9 hPa 0,0 l/m 0 min 0 min 0 W/m 29,3 km/h (5 Bft) 100,00 %
24.12.2016 17:00 7,3 C 7,2 C 5,6 C 83 % 0 lf 1024,9 hPa 0,0 l/m 0 min 0 min 0 W/m 23,0 km/h (4 Bft) 100,00 %
24.12.2016 17:02 7,3 C 7,2 C 5,6 C 83 % 0 lf 1024,9 hPa 0,0 l/m 0 min 0 min 0 W/m 33,5 km/h (5 Bft) 100,00 %
24.12.2016 17:04 7,3 C 7,2 C 5,6 C 83 % 0 lf 1024,9 hPa 0,0 l/m 0 min 0 min 0 W/m 29,3 km/h (5 Bft) 97,87 %
24.12.2016 17:06 7,3 C 7,2 C 5,6 C 83 % 0 lf 1024,9 hPa 0,0 l/m 0 min 0 min 0 W/m 20,9 km/h (4 Bft) 95,74 %
24.12.2016 17:08 7,3 C 7,2 C 5,0 C 83 % 0 lf 1024,9 hPa 0,0 l/m 0 min 0 min 0 W/m 16,7 km/h (3 Bft) 100,00 %
24.12.2016 17:10 7,3 C 7,2 C 5,6 C 83 % 0 lf 1025,0 hPa 0,0 l/m 0 min 0 min 0 W/m 25,1 km/h (4 Bft) 100,00 %
24.12.2016 17:12 7,3 C 7,2 C 5,6 C 83 % 0 lf 1025,0 hPa 0,0 l/m 0 min 0 min 0 W/m 16,7 km/h (3 Bft) 100,00 %
24.12.2016 17:14 7,3 C 7,2 C 5,6 C 83 % 0 lf 1025,0 hPa 0,0 l/m 0 min 0 min 0 W/m 23,0 km/h (4 Bft) 100,00 %
24.12.2016 17:16 7,3 C 7,2 C 5,6 C 83 % 0 lf 1025,1 hPa 0,0 l/m 0 min 0 min 0 W/m 29,3 km/h (5 Bft) 93,62 %
24.12.2016 17:18 7,3 C 7,2 C 5,6 C 83 % 0 lf 1025,0 hPa 0,0 l/m 0 min 0 min 0 W/m 25,1 km/h (4 Bft) 95,74 %
24.12.2016 17:20 7,3 C 7,2 C 5,6 C 83 % 0 lf 1025,0 hPa 0,0 l/m 0 min 0 min 0 W/m 27,2 km/h (4 Bft) 100,00 %
24.12.2016 17:22 7,3 C 7,2 C 5,6 C 83 % 0 lf 1025,0 hPa 0,0 l/m 0 min 0 min 0 W/m 27,2 km/h (4 Bft) 97,83 %
24.12.2016 17:24 7,3 C 7,2 C 5,6 C 83 % 0 lf 1025,0 hPa 0,0 l/m 0 min 0 min 0 W/m 25,1 km/h (4 Bft) 100,00 %
24.12.2016 17:26 7,3 C 7,2 C 5,6 C 83 % 0 lf 1025,0 hPa 0,0 l/m 0 min 0 min 0 W/m 23,0 km/h (4 Bft) 95,74 %
24.12.2016 17:28 7,3 C 7,2 C 5,6 C 84 % 0 lf 1025,0 hPa 0,0 l/m 0 min 0 min 0 W/m 27,2 km/h (4 Bft) 97,87 %
24.12.2016 17:30 7,3 C 7,2 C 5,6 C 84 % 0 lf 1025,0 hPa 0,0 l/m 0 min 0 min 0 W/m 25,1 km/h (4 Bft) 97,87 %
24.12.2016 17:32 7,3 C 7,2 C 5,6 C 84 % 0 lf 1025,0 hPa 0,0 l/m 0 min 0 min 0 W/m 29,3 km/h (5 Bft) 95,74 %
24.12.2016 17:34 7,3 C 7,2 C 5,6 C 84 % 0 lf 1024,9 hPa 0,0 l/m 0 min 0 min 0 W/m 25,1 km/h (4 Bft) 95,65 %
24.12.2016 17:36 7,3 C 7,2 C 5,6 C 84 % 0 lf 1024,9 hPa 0,0 l/m 0 min 0 min 0 W/m 27,2 km/h (4 Bft) 97,87 %
24.12.2016 17:38 7,3 C 7,2 C 5,6 C 84 % 0 lf 1024,9 hPa 0,0 l/m 0 min 0 min 0 W/m 23,0 km/h (4 Bft) 95,74 %
24.12.2016 17:40 7,3 C 7,2 C 5,6 C 84 % 0 lf 1024,9 hPa 0,0 l/m 0 min 0 min 0 W/m 27,2 km/h (4 Bft) 95,74 %
24.12.2016 17:42 7,3 C 7,2 C 5,6 C 84 % 0 lf 1024,9 hPa 0,0 l/m 0 min 0 min 0 W/m 23,0 km/h (4 Bft) 95,74 %
24.12.2016 17:44 7,3 C 7,2 C 5,6 C 84 % 0 lf 1024,9 hPa 0,0 l/m 0 min 0 min 0 W/m 31,4 km/h (5 Bft) 95,65 %
24.12.2016 17:46 7,3 C 7,2 C 5,6 C 84 % 0 lf 1024,9 hPa 0,0 l/m 0 min 0 min 0 W/m 27,2 km/h (4 Bft) 93,62 %
24.12.2016 17:48 7,3 C 7,2 C 5,6 C 84 % 0 lf 1024,9 hPa 0,0 l/m 0 min 0 min 0 W/m 25,1 km/h (4 Bft) 93,62 %
24.12.2016 17:50 7,3 C 7,2 C 5,6 C 84 % 0 lf 1024,9 hPa 0,0 l/m 0 min 0 min 0 W/m 25,1 km/h (4 Bft) 97,87 %
24.12.2016 17:52 7,3 C 7,2 C 5,6 C 84 % 0 lf 1024,9 hPa 0,0 l/m 0 min 0 min 0 W/m 20,9 km/h (4 Bft) 95,74 %
24.12.2016 17:54 7,3 C 7,2 C 5,6 C 84 % 0 lf 1024,9 hPa 0,0 l/m 0 min 0 min 0 W/m 23,0 km/h (4 Bft) 93,62 %
24.12.2016 17:56 7,3 C 7,2 C 5,6 C 84 % 0 lf 1024,9 hPa 0,0 l/m 0 min 0 min 0 W/m 29,3 km/h (5 Bft) 97,83 %
24.12.2016 17:58 7,3 C 7,2 C 5,6 C 84 % 0 lf 1024,8 hPa 0,0 l/m 0 min 0 min 0 W/m 29,3 km/h (5 Bft) 93,62 %
24.12.2016 18:00 7,3 C 7,2 C 5,6 C 84 % 0 lf 1024,7 hPa 0,0 l/m 0 min 0 min 0 W/m 29,3 km/h (5 Bft) 89,36 %
24.12.2016 18:02 7,3 C 7,2 C 5,6 C 84 % 0 lf 1024,7 hPa 0,0 l/m 0 min 0 min 0 W/m 29,3 km/h (5 Bft) 93,62 %
24.12.2016 18:06 7,3 C 7,2 C 5,6 C 84 % 0 lf 1024,8 hPa 0,0 l/m 0 min 0 min 0 W/m 29,3 km/h (5 Bft) 94,68 %
24.12.2016 18:08 7,3 C 7,2 C 5,6 C 84 % 0 lf 1024,9 hPa 0,0 l/m 0 min 0 min 0 W/m 35,6 km/h (5 Bft) 97,83 %
24.12.2016 18:10 7,3 C 7,2 C 5,6 C 84 % 0 lf 1024,8 hPa 0,0 l/m 0 min 0 min 0 W/m 31,4 km/h (5 Bft) 95,74 %
24.12.2016 18:12 7,3 C 7,2 C 5,6 C 85 % 0 lf 1024,8 hPa 0,0 l/m 0 min 0 min 0 W/m 27,2 km/h (4 Bft) 95,74 %
24.12.2016 18:14 7,3 C 7,2 C 5,6 C 85 % 0 lf 1024,8 hPa 0,0 l/m 0 min 0 min 0 W/m 23,0 km/h (4 Bft) 95,74 %
24.12.2016 18:16 7,4 C 7,2 C 5,6 C 85 % 0 lf 1024,9 hPa 0,0 l/m 0 min 0 min 0 W/m 25,1 km/h (4 Bft) 97,87 %
24.12.2016 18:18 7,3 C 7,2 C 5,6 C 85 % 0 lf 1024,9 hPa 0,0 l/m 0 min 0 min 0 W/m 25,1 km/h (4 Bft) 95,74 %
24.12.2016 18:20 7,3 C 7,2 C 5,6 C 85 % 0 lf 1024,8 hPa 0,0 l/m 0 min 0 min 0 W/m 33,5 km/h (5 Bft) 95,65 %
24.12.2016 18:22 7,3 C 7,2 C 5,6 C 85 % 0 lf 1024,8 hPa 0,0 l/m 0 min 0 min 0 W/m 29,3 km/h (5 Bft) 95,74 %
24.12.2016 18:24 7,3 C 7,2 C 5,6 C 85 % 0 lf 1024,7 hPa 0,0 l/m 0 min 0 min 0 W/m 20,9 km/h (4 Bft) 93,62 %
24.12.2016 18:26 7,3 C 7,2 C 5,6 C 85 % 0 lf 1024,7 hPa 0,0 l/m 0 min 0 min 0 W/m 29,3 km/h (5 Bft) 97,87 %
24.12.2016 18:28 7,3 C 7,2 C 5,6 C 86 % 0 lf 1024,6 hPa 0,0 l/m 0 min 0 min 0 W/m 23,0 km/h (4 Bft) 95,74 %
24.12.2016 18:30 7,3 C 7,2 C 5,6 C 86 % 0 lf 1024,7 hPa 0,0 l/m 0 min 0 min 0 W/m 29,3 km/h (5 Bft) 93,62 %
24.12.2016 18:32 7,3 C 7,2 C 5,6 C 86 % 0 lf 1024,7 hPa 0,0 l/m 0 min 0 min 0 W/m 23,0 km/h (4 Bft) 97,83 %
24.12.2016 18:34 7,3 C 7,2 C 5,6 C 86 % 0 lf 1024,8 hPa 0,0 l/m 0 min 0 min 0 W/m 33,5 km/h (5 Bft) 97,87 %
24.12.2016 18:36 7,3 C 7,2 C 5,6 C 86 % 0 lf 1024,8 hPa 0,0 l/m 0 min 0 min 0 W/m 25,1 km/h (4 Bft) 93,62 %
24.12.2016 18:38 7,3 C 7,2 C 5,6 C 86 % 0 lf 1024,9 hPa 0,0 l/m 0 min 0 min 0 W/m 27,2 km/h (4 Bft) 93,62 %
24.12.2016 18:40 7,3 C 7,2 C 5,6 C 86 % 0 lf 1024,9 hPa 0,0 l/m 0 min 0 min 0 W/m 23,0 km/h (4 Bft) 93,62 %
24.12.2016 18:42 7,3 C 7,2 C 5,6 C 86 % 0 lf 1024,9 hPa 0,0 l/m 0 min 0 min 0 W/m 20,9 km/h (4 Bft) 93,62 %
24.12.2016 18:44 7,3 C 7,2 C 5,6 C 86 % 0 lf 1024,9 hPa 0,0 l/m 0 min 0 min 0 W/m 25,1 km/h (4 Bft) 95,65 %
24.12.2016 18:46 7,3 C 7,2 C 5,6 C 86 % 0 lf 1024,9 hPa 0,0 l/m 0 min 0 min 0 W/m 20,9 km/h (4 Bft) 89,36 %
24.12.2016 18:48 7,3 C 7,2 C 5,6 C 86 % 0 lf 1025,0 hPa 0,0 l/m 0 min 0 min 0 W/m 29,3 km/h (5 Bft) 97,87 %
24.12.2016 18:50 7,3 C 7,2 C 5,6 C 87 % 0 lf 1025,0 hPa 0,0 l/m 0 min 0 min 0 W/m 31,4 km/h (5 Bft) 93,62 %
24.12.2016 18:52 7,3 C 7,2 C 5,6 C 87 % 0 lf 1025,1 hPa 0,0 l/m 0 min 0 min 0 W/m 33,5 km/h (5 Bft) 97,87 %
24.12.2016 18:54 7,3 C 7,2 C 5,6 C 87 % 0 lf 1025,1 hPa 0,0 l/m 0 min 0 min 0 W/m 29,3 km/h (5 Bft) 89,36 %
24.12.2016 18:56 7,3 C 7,2 C 5,6 C 87 % 0 lf 1025,1 hPa 0,0 l/m 0 min 0 min 0 W/m 27,2 km/h (4 Bft) 95,65 %
24.12.2016 18:58 7,4 C 7,2 C 5,6 C 87 % 0 lf 1025,0 hPa 0,0 l/m 0 min 0 min 0 W/m 25,1 km/h (4 Bft) 95,74 %
24.12.2016 19:00 7,4 C 7,2 C 5,6 C 87 % 0 lf 1025,1 hPa 0,0 l/m 0 min 0 min 0 W/m 29,3 km/h (5 Bft) 93,62 %
24.12.2016 19:02 7,4 C 7,2 C 5,6 C 87 % 0 lf 1025,0 hPa 0,0 l/m 0 min 0 min 0 W/m 31,4 km/h (5 Bft) 95,74 %
24.12.2016 19:04 7,4 C 7,8 C 5,6 C 87 % 0 lf 1025,0 hPa 0,0 l/m 0 min 0 min 0 W/m 39,7 km/h (6 Bft) 93,62 %
24.12.2016 19:06 7,4 C 7,8 C 5,6 C 87 % 0 lf 1025,0 hPa 0,0 l/m 0 min 0 min 0 W/m 31,4 km/h (5 Bft) 95,65 %
24.12.2016 19:08 7,4 C 7,8 C 5,6 C 87 % 0 lf 1025,0 hPa 0,0 l/m 0 min 0 min 0 W/m 35,6 km/h (5 Bft) 93,62 %
24.12.2016 19:10 7,4 C 7,8 C 5,6 C 87 % 0 lf 1024,9 hPa 0,0 l/m 0 min 0 min 0 W/m 29,3 km/h (5 Bft) 91,49 %
24.12.2016 19:12 7,4 C 7,8 C 5,6 C 87 % 0 lf 1024,9 hPa 0,0 l/m 0 min 0 min 0 W/m 25,1 km/h (4 Bft) 91,49 %
24.12.2016 19:14 7,4 C 7,8 C 5,6 C 87 % 0 lf 1024,9 hPa 0,0 l/m 0 min 0 min 0 W/m 29,3 km/h (5 Bft) 93,62 %
24.12.2016 19:16 7,4 C 7,2 C 5,6 C 87 % 0 lf 1024,7 hPa 0,0 l/m 0 min 0 min 0 W/m 27,2 km/h (4 Bft) 95,74 %
24.12.2016 19:18 7,4 C 7,2 C 5,6 C 87 % 0 lf 1024,7 hPa 0,0 l/m 0 min 0 min 0 W/m 25,1 km/h (4 Bft) 95,65 %
24.12.2016 19:20 7,4 C 7,2 C 5,6 C 87 % 0 lf 1024,7 hPa 0,0 l/m 0 min 0 min 0 W/m 29,3 km/h (5 Bft) 97,87 %
24.12.2016 19:22 7,4 C 7,8 C 5,6 C 87 % 0 lf 1024,8 hPa 0,0 l/m 0 min 0 min 0 W/m 29,3 km/h (5 Bft) 93,62 %
24.12.2016 19:24 7,4 C 7,8 C 5,6 C 87 % 0 lf 1024,7 hPa 0,0 l/m 0 min 0 min 0 W/m 31,4 km/h (5 Bft) 91,49 %
24.12.2016 19:26 7,4 C 7,8 C 5,6 C 88 % 0 lf 1024,6 hPa 0,0 l/m 0 min 0 min 0 W/m 33,5 km/h (5 Bft) 95,74 %
24.12.2016 19:28 7,4 C 7,8 C 5,6 C 88 % 0 lf 1024,6 hPa 0,0 l/m 0 min 0 min 0 W/m 31,4 km/h (5 Bft) 95,74 %
24.12.2016 19:30 7,4 C 7,8 C 5,6 C 88 % 0 lf 1024,7 hPa 0,0 l/m 0 min 0 min 0 W/m 31,4 km/h (5 Bft) 97,83 %
24.12.2016 19:32 7,4 C 7,8 C 5,6 C 88 % 0 lf 1024,7 hPa 0,0 l/m 0 min 0 min 0 W/m 27,2 km/h (4 Bft) 95,74 %
24.12.2016 19:34 7,4 C 7,8 C 5,6 C 88 % 0 lf 1024,7 hPa 0,0 l/m 0 min 0 min 0 W/m 31,4 km/h (5 Bft) 95,74 %
24.12.2016 19:36 7,4 C 7,8 C 5,6 C 88 % 0 lf 1024,8 hPa 0,0 l/m 0 min 0 min 0 W/m 23,0 km/h (4 Bft) 100,00 %
24.12.2016 19:38 7,4 C 7,8 C 5,6 C 88 % 0 lf 1024,8 hPa 0,0 l/m 0 min 0 min 0 W/m 25,1 km/h (4 Bft) 95,74 %
24.12.2016 19:40 7,5 C 7,8 C 5,6 C 88 % 0 lf 1024,7 hPa 0,0 l/m 0 min 0 min 0 W/m 31,4 km/h (5 Bft) 95,74 %
24.12.2016 19:42 7,5 C 7,8 C 5,6 C 88 % 0 lf 1024,9 hPa 0,0 l/m 0 min 0 min 0 W/m 33,5 km/h (5 Bft) 93,48 %
24.12.2016 19:44 7,5 C 7,8 C 6,1 C 88 % 0 lf 1025,0 hPa 0,0 l/m 0 min 0 min 0 W/m 35,6 km/h (5 Bft) 97,87 %
24.12.2016 19:46 7,5 C 7,8 C 6,1 C 88 % 0 lf 1025,0 hPa 0,0 l/m 0 min 0 min 0 W/m 33,5 km/h (5 Bft) 100,00 %
24.12.2016 19:48 7,5 C 7,8 C 6,1 C 88 % 0 lf 1024,9 hPa 0,0 l/m 0 min 0 min 0 W/m 25,1 km/h (4 Bft) 95,74 %
24.12.2016 19:50 7,5 C 7,8 C 6,1 C 88 % 0 lf 1024,9 hPa 0,0 l/m 0 min 0 min 0 W/m 35,6 km/h (5 Bft) 97,87 %
24.12.2016 19:52 7,6 C 7,8 C 6,1 C 88 % 0 lf 1024,9 hPa 0,0 l/m 0 min 0 min 0 W/m 27,2 km/h (4 Bft) 93,62 %
24.12.2016 19:54 7,5 C 7,8 C 6,1 C 88 % 0 lf 1024,9 hPa 0,0 l/m 0 min 0 min 0 W/m 31,4 km/h (5 Bft) 95,65 %
24.12.2016 19:56 7,6 C 7,8 C 6,1 C 88 % 0 lf 1024,9 hPa 0,0 l/m 0 min 0 min 0 W/m 31,4 km/h (5 Bft) 100,00 %
24.12.2016 19:58 7,6 C 7,8 C 5,6 C 88 % 0 lf 1024,9 hPa 0,0 l/m 0 min 0 min 0 W/m 27,2 km/h (4 Bft) 97,87 %
24.12.2016 20:00 7,6 C 7,8 C 6,1 C 88 % 0 lf 1024,9 hPa 0,0 l/m 0 min 0 min 0 W/m 31,4 km/h (5 Bft) 97,87 %
24.12.2016 20:02 7,5 C 7,8 C 6,1 C 88 % 0 lf 1024,9 hPa 0,0 l/m 0 min 0 min 0 W/m 35,6 km/h (5 Bft) 95,74 %
24.12.2016 20:04 7,6 C 7,8 C 6,1 C 88 % 0 lf 1025,0 hPa 0,0 l/m 0 min 0 min 0 W/m 27,2 km/h (4 Bft) 95,74 %
24.12.2016 20:06 7,6 C 7,8 C 6,1 C 88 % 0 lf 1025,0 hPa 0,0 l/m 0 min 0 min 0 W/m 29,3 km/h (5 Bft) 93,48 %
24.12.2016 20:08 7,6 C 7,8 C 6,1 C 88 % 0 lf 1025,0 hPa 0,0 l/m 0 min 0 min 0 W/m 27,2 km/h (4 Bft) 97,87 %
24.12.2016 20:10 7,6 C 7,8 C 6,1 C 88 % 0 lf 1025,0 hPa 0,0 l/m 0 min 0 min 0 W/m 31,4 km/h (5 Bft) 93,62 %
24.12.2016 20:12 7,6 C 7,8 C 6,1 C 88 % 0 lf 1024,9 hPa 0,0 l/m 0 min 0 min 0 W/m 29,3 km/h (5 Bft) 93,62 %
24.12.2016 20:14 7,6 C 7,8 C 6,1 C 88 % 0 lf 1024,9 hPa 0,0 l/m 0 min 0 min 0 W/m 31,4 km/h (5 Bft) 95,74 %
24.12.2016 20:16 7,6 C 7,8 C 6,1 C 88 % 0 lf 1024,9 hPa 0,0 l/m 0 min 0 min 0 W/m 33,5 km/h (5 Bft) 93,48 %
24.12.2016 20:18 7,6 C 7,8 C 6,1 C 88 % 0 lf 1024,9 hPa 0,0 l/m 0 min 0 min 0 W/m 29,3 km/h (5 Bft) 91,49 %
24.12.2016 20:20 7,6 C 7,8 C 6,1 C 88 % 0 lf 1025,0 hPa 0,0 l/m 0 min 0 min 0 W/m 27,2 km/h (4 Bft) 93,62 %
24.12.2016 20:22 7,7 C 7,8 C 6,1 C 88 % 0 lf 1024,9 hPa 0,0 l/m 0 min 0 min 0 W/m 29,3 km/h (5 Bft) 95,74 %
24.12.2016 20:24 7,7 C 7,8 C 6,1 C 88 % 0 lf 1024,9 hPa 0,0 l/m 0 min 0 min 0 W/m 31,4 km/h (5 Bft) 91,49 %
24.12.2016 20:26 7,7 C 7,8 C 6,1 C 88 % 0 lf 1024,8 hPa 0,0 l/m 0 min 0 min 0 W/m 29,3 km/h (5 Bft) 93,62 %
24.12.2016 20:28 7,7 C 7,8 C 6,1 C 88 % 0 lf 1024,7 hPa 0,0 l/m 0 min 0 min 0 W/m 27,2 km/h (4 Bft) 93,48 %
24.12.2016 20:30 7,7 C 7,8 C 6,1 C 88 % 0 lf 1024,8 hPa 0,0 l/m 0 min 0 min 0 W/m 27,2 km/h (4 Bft) 95,83 %
24.12.2016 20:32 7,7 C 7,8 C 6,1 C 88 % 0 lf 1024,8 hPa 0,0 l/m 0 min 0 min 0 W/m 29,3 km/h (5 Bft) 95,74 %
24.12.2016 20:34 7,7 C 7,8 C 6,1 C 88 % 0 lf 1024,8 hPa 0,0 l/m 0 min 0 min 0 W/m 25,1 km/h (4 Bft) 97,87 %
24.12.2016 20:36 7,7 C 7,8 C 6,1 C 88 % 0 lf 1024,7 hPa 0,0 l/m 0 min 0 min 0 W/m 27,2 km/h (4 Bft) 97,87 %
24.12.2016 20:38 7,7 C 7,8 C 6,1 C 88 % 0 lf 1024,7 hPa 0,0 l/m 0 min 0 min 0 W/m 31,4 km/h (5 Bft) 95,74 %
24.12.2016 20:40 7,7 C 7,8 C 6,1 C 88 % 0 lf 1024,7 hPa 0,0 l/m 0 min 0 min 0 W/m 27,2 km/h (4 Bft) 95,65 %
24.12.2016 20:42 7,8 C 7,8 C 6,1 C 88 % 0 lf 1024,7 hPa 0,0 l/m 0 min 0 min 0 W/m 35,6 km/h (5 Bft) 95,74 %
24.12.2016 20:44 7,8 C 7,8 C 6,7 C 88 % 0 lf 1024,7 hPa 0,0 l/m 0 min 0 min 0 W/m 37,7 km/h (5 Bft) 95,74 %
24.12.2016 20:46 7,8 C 8,3 C 6,7 C 88 % 0 lf 1024,7 hPa 0,0 l/m 0 min 0 min 0 W/m 31,4 km/h (5 Bft) 91,49 %
24.12.2016 20:48 7,8 C 8,3 C 6,7 C 88 % 0 lf 1024,8 hPa 0,0 l/m 0 min 0 min 0 W/m 37,7 km/h (5 Bft) 95,74 %
24.12.2016 20:50 7,8 C 8,3 C 6,7 C 88 % 0 lf 1024,7 hPa 0,0 l/m 0 min 0 min 0 W/m 29,3 km/h (5 Bft) 100,00 %
24.12.2016 20:52 7,9 C 8,3 C 6,7 C 88 % 0 lf 1024,9 hPa 0,0 l/m 0 min 0 min 0 W/m 35,6 km/h (5 Bft) 97,83 %
24.12.2016 20:54 7,9 C 8,3 C 6,7 C 88 % 0 lf 1024,8 hPa 0,0 l/m 0 min 0 min 0 W/m 27,2 km/h (4 Bft) 93,62 %
24.12.2016 20:56 7,9 C 8,3 C 6,7 C 87 % 0 lf 1025,0 hPa 0,0 l/m 0 min 0 min 0 W/m 31,4 km/h (5 Bft) 97,87 %
24.12.2016 20:58 7,9 C 8,3 C 6,7 C 87 % 0 lf 1025,0 hPa 0,0 l/m 0 min 0 min 0 W/m 27,2 km/h (4 Bft) 97,87 %
24.12.2016 21:00 7,9 C 8,3 C 6,7 C 87 % 0 lf 1025,0 hPa 0,0 l/m 0 min 0 min 0 W/m 39,7 km/h (6 Bft) 100,00 %
24.12.2016 21:02 7,9 C 8,3 C 6,7 C 87 % 0 lf 1025,0 hPa 0,0 l/m 0 min 0 min 0 W/m 29,3 km/h (5 Bft) 97,87 %
24.12.2016 21:04 7,9 C 8,3 C 6,7 C 87 % 0 lf 1024,9 hPa 0,0 l/m 0 min 0 min 0 W/m 31,4 km/h (5 Bft) 93,48 %
24.12.2016 21:06 8,0 C 8,3 C 6,7 C 87 % 0 lf 1024,9 hPa 0,0 l/m 0 min 0 min 0 W/m 29,3 km/h (5 Bft) 100,00 %
24.12.2016 21:08 8,0 C 8,3 C 6,7 C 87 % 0 lf 1025,0 hPa 0,0 l/m 0 min 0 min 0 W/m 29,3 km/h (5 Bft) 100,00 %
24.12.2016 21:12 8,0 C 8,3 C 6,7 C 87 % 0 lf 1024,9 hPa 0,0 l/m 0 min 0 min 0 W/m 33,5 km/h (5 Bft) 98,94 %
24.12.2016 21:14 8,1 C 8,3 C 6,7 C 87 % 0 lf 1024,9 hPa 0,0 l/m 0 min 0 min 0 W/m 35,6 km/h (5 Bft) 100,00 %
24.12.2016 21:16 8,1 C 8,3 C 6,7 C 87 % 0 lf 1024,9 hPa 0,0 l/m 0 min 0 min 0 W/m 27,2 km/h (4 Bft) 97,83 %
24.12.2016 21:18 8,1 C 8,3 C 6,7 C 87 % 0 lf 1024,9 hPa 0,0 l/m 0 min 0 min 0 W/m 31,4 km/h (5 Bft) 100,00 %
24.12.2016 21:20 8,1 C 8,3 C 6,7 C 87 % 0 lf 1025,0 hPa 0,0 l/m 0 min 0 min 0 W/m 41,8 km/h (6 Bft) 100,00 %
24.12.2016 21:22 8,1 C 8,3 C 6,7 C 87 % 0 lf 1025,2 hPa 0,0 l/m 0 min 0 min 0 W/m 33,5 km/h (5 Bft) 95,74 %
24.12.2016 21:24 8,2 C 8,3 C 6,7 C 87 % 0 lf 1025,2 hPa 0,0 l/m 0 min 0 min 0 W/m 29,3 km/h (5 Bft) 100,00 %
24.12.2016 21:26 8,2 C 8,3 C 6,7 C 87 % 0 lf 1025,1 hPa 0,0 l/m 0 min 0 min 0 W/m 33,5 km/h (5 Bft) 97,83 %
24.12.2016 21:28 8,2 C 8,3 C 6,7 C 87 % 0 lf 1025,1 hPa 0,0 l/m 0 min 0 min 0 W/m 37,7 km/h (5 Bft) 95,74 %
24.12.2016 21:30 8,2 C 8,3 C 6,7 C 87 % 0 lf 1025,1 hPa 0,0 l/m 0 min 0 min 0 W/m 31,4 km/h (5 Bft) 97,87 %
24.12.2016 21:32 8,2 C 8,3 C 6,7 C 87 % 0 lf 1025,1 hPa 0,0 l/m 0 min 0 min 0 W/m 29,3 km/h (5 Bft) 97,87 %
24.12.2016 21:34 8,2 C 8,3 C 6,7 C 87 % 0 lf 1025,1 hPa 0,0 l/m 0 min 0 min 0 W/m 27,2 km/h (4 Bft) 100,00 %
24.12.2016 21:36 8,2 C 8,3 C 6,7 C 87 % 0 lf 1025,0 hPa 0,0 l/m 0 min 0 min 0 W/m 27,2 km/h (4 Bft) 100,00 %
24.12.2016 21:38 8,2 C 8,3 C 6,7 C 87 % 0 lf 1025,0 hPa 0,0 l/m 0 min 0 min 0 W/m 23,0 km/h (4 Bft) 97,83 %
24.12.2016 21:40 8,2 C 8,3 C 6,7 C 87 % 0 lf 1025,1 hPa 0,0 l/m 0 min 0 min 0 W/m 25,1 km/h (4 Bft) 95,74 %
24.12.2016 21:42 8,2 C 8,3 C 6,7 C 87 % 0 lf 1025,1 hPa 0,0 l/m 0 min 0 min 0 W/m 27,2 km/h (4 Bft) 95,74 %
24.12.2016 21:44 8,2 C 8,3 C 6,7 C 87 % 0 lf 1025,0 hPa 0,0 l/m 0 min 0 min 0 W/m 31,4 km/h (5 Bft) 91,49 %
24.12.2016 21:46 8,2 C 8,3 C 6,7 C 87 % 0 lf 1024,9 hPa 0,0 l/m 0 min 0 min 0 W/m 33,5 km/h (5 Bft) 93,62 %
24.12.2016 21:48 8,2 C 8,3 C 6,7 C 87 % 0 lf 1025,0 hPa 0,0 l/m 0 min 0 min 0 W/m 29,3 km/h (5 Bft) 97,87 %
24.12.2016 21:50 8,2 C 8,3 C 6,7 C 87 % 0 lf 1025,0 hPa 0,0 l/m 0 min 0 min 0 W/m 29,3 km/h (5 Bft) 97,83 %
24.12.2016 21:52 8,2 C 8,3 C 6,7 C 87 % 0 lf 1025,0 hPa 0,0 l/m 0 min 0 min 0 W/m 31,4 km/h (5 Bft) 97,87 %
24.12.2016 21:54 8,2 C 8,3 C 6,7 C 87 % 0 lf 1025,0 hPa 0,0 l/m 0 min 0 min 0 W/m 27,2 km/h (4 Bft) 100,00 %
24.12.2016 21:56 8,2 C 8,3 C 6,7 C 87 % 0 lf 1024,9 hPa 0,0 l/m 0 min 0 min 0 W/m 25,1 km/h (4 Bft) 95,74 %
24.12.2016 21:58 8,2 C 8,3 C 6,7 C 87 % 0 lf 1025,0 hPa 0,0 l/m 0 min 0 min 0 W/m 33,5 km/h (5 Bft) 93,62 %
24.12.2016 22:00 8,2 C 8,3 C 6,7 C 87 % 0 lf 1025,0 hPa 0,0 l/m 0 min 0 min 0 W/m 31,4 km/h (5 Bft) 93,62 %
24.12.2016 22:02 8,2 C 8,3 C 6,7 C 87 % 0 lf 1025,0 hPa 0,0 l/m 0 min 0 min 0 W/m 29,3 km/h (5 Bft) 91,30 %
24.12.2016 22:04 8,2 C 8,3 C 6,7 C 87 % 0 lf 1025,0 hPa 0,0 l/m 0 min 0 min 0 W/m 33,5 km/h (5 Bft) 91,49 %
24.12.2016 22:06 8,2 C 8,3 C 6,7 C 87 % 0 lf 1024,9 hPa 0,0 l/m 0 min 0 min 0 W/m 31,4 km/h (5 Bft) 95,74 %
24.12.2016 22:08 8,2 C 8,3 C 6,7 C 87 % 0 lf 1024,9 hPa 0,0 l/m 0 min 0 min 0 W/m 31,4 km/h (5 Bft) 91,49 %
24.12.2016 22:10 8,2 C 8,3 C 6,7 C 87 % 0 lf 1025,0 hPa 0,0 l/m 0 min 0 min 0 W/m 35,6 km/h (5 Bft) 95,74 %
24.12.2016 22:12 8,2 C 8,3 C 6,7 C 87 % 0 lf 1025,1 hPa 0,0 l/m 0 min 0 min 0 W/m 35,6 km/h (5 Bft) 95,74 %
24.12.2016 22:14 8,2 C 8,3 C 6,7 C 87 % 0 lf 1025,0 hPa 0,0 l/m 0 min 0 min 0 W/m 33,5 km/h (5 Bft) 97,83 %
24.12.2016 22:16 8,2 C 8,3 C 6,7 C 87 % 0 lf 1025,0 hPa 0,0 l/m 0 min 0 min 0 W/m 25,1 km/h (4 Bft) 91,49 %
24.12.2016 22:18 8,3 C 8,3 C 6,7 C 87 % 0 lf 1025,0 hPa 0,0 l/m 0 min 0 min 0 W/m 25,1 km/h (4 Bft) 95,74 %
24.12.2016 22:20 8,3 C 8,3 C 6,7 C 87 % 0 lf 1025,0 hPa 0,0 l/m 0 min 0 min 0 W/m 27,2 km/h (4 Bft) 97,87 %
24.12.2016 22:22 8,3 C 8,3 C 6,7 C 87 % 0 lf 1025,1 hPa 0,0 l/m 0 min 0 min 0 W/m 37,7 km/h (5 Bft) 93,62 %
24.12.2016 22:24 8,3 C 8,3 C 6,7 C 87 % 0 lf 1025,1 hPa 0,0 l/m 0 min 0 min 0 W/m 29,3 km/h (5 Bft) 93,62 %
24.12.2016 22:26 8,3 C 8,3 C 6,7 C 87 % 0 lf 1025,0 hPa 0,0 l/m 0 min 0 min 0 W/m 25,1 km/h (4 Bft) 91,30 %
24.12.2016 22:28 8,3 C 8,3 C 6,7 C 87 % 0 lf 1025,1 hPa 0,0 l/m 0 min 0 min 0 W/m 27,2 km/h (4 Bft) 93,62 %
24.12.2016 22:30 8,3 C 8,3 C 6,7 C 87 % 0 lf 1025,1 hPa 0,0 l/m 0 min 0 min 0 W/m 18,8 km/h (3 Bft) 97,87 %
24.12.2016 22:32 8,3 C 8,3 C 6,7 C 87 % 0 lf 1025,0 hPa 0,0 l/m 0 min 0 min 0 W/m 27,2 km/h (4 Bft) 95,74 %
24.12.2016 22:34 8,3 C 8,3 C 6,7 C 87 % 0 lf 1025,1 hPa 0,0 l/m 0 min 0 min 0 W/m 27,2 km/h (4 Bft) 95,74 %
24.12.2016 22:36 8,3 C 8,3 C 6,7 C 87 % 0 lf 1025,1 hPa 0,0 l/m 0 min 0 min 0 W/m 37,7 km/h (5 Bft) 97,83 %
24.12.2016 22:38 8,3 C 8,3 C 6,7 C 87 % 0 lf 1025,0 hPa 0,0 l/m 0 min 0 min 0 W/m 35,6 km/h (5 Bft) 95,74 %
24.12.2016 22:40 8,3 C 8,3 C 6,7 C 87 % 0 lf 1025,1 hPa 0,0 l/m 0 min 0 min 0 W/m 33,5 km/h (5 Bft) 95,74 %
24.12.2016 22:42 8,3 C 8,3 C 6,7 C 86 % 0 lf 1025,0 hPa 0,0 l/m 0 min 0 min 0 W/m 27,2 km/h (4 Bft) 93,62 %
24.12.2016 22:44 8,3 C 8,3 C 6,7 C 87 % 0 lf 1025,1 hPa 0,0 l/m 0 min 0 min 0 W/m 25,1 km/h (4 Bft) 93,62 %
24.12.2016 22:46 8,3 C 8,3 C 6,7 C 87 % 0 lf 1025,0 hPa 0,0 l/m 0 min 0 min 0 W/m 35,6 km/h (5 Bft) 97,87 %
24.12.2016 22:48 8,4 C 8,3 C 6,7 C 87 % 0 lf 1024,9 hPa 0,0 l/m 0 min 0 min 0 W/m 35,6 km/h (5 Bft) 93,48 %
24.12.2016 22:50 8,4 C 8,9 C 7,2 C 87 % 0 lf 1025,1 hPa 0,0 l/m 0 min 0 min 0 W/m 35,6 km/h (5 Bft) 95,74 %
24.12.2016 22:52 8,4 C 8,9 C 7,2 C 86 % 0 lf 1024,9 hPa 0,0 l/m 0 min 0 min 0 W/m 31,4 km/h (5 Bft) 93,62 %
24.12.2016 22:54 8,4 C 8,9 C 7,2 C 86 % 0 lf 1025,0 hPa 0,0 l/m 0 min 0 min 0 W/m 25,1 km/h (4 Bft) 95,74 %
24.12.2016 22:56 8,4 C 8,9 C 7,2 C 86 % 0 lf 1024,9 hPa 0,0 l/m 0 min 0 min 0 W/m 39,7 km/h (6 Bft) 93,62 %
24.12.2016 22:58 8,4 C 8,9 C 7,2 C 86 % 0 lf 1025,0 hPa 0,0 l/m 0 min 0 min 0 W/m 37,7 km/h (5 Bft) 93,62 %
24.12.2016 23:00 8,5 C 8,9 C 7,2 C 86 % 1 lf 1025,0 hPa 0,0 l/m 0 min 0 min 0 W/m 33,5 km/h (5 Bft) 93,48 %
24.12.2016 23:02 8,5 C 8,9 C 7,2 C 86 % 3 lf 1025,0 hPa 0,0 l/m 0 min 2 min 0 W/m 43,9 km/h (6 Bft) 93,62 %
24.12.2016 23:04 8,5 C 8,9 C 7,2 C 86 % 3 lf 1024,9 hPa 0,0 l/m 0 min 2 min 0 W/m 29,3 km/h (5 Bft) 95,74 %
24.12.2016 23:06 8,6 C 8,9 C 7,2 C 86 % 2 lf 1024,9 hPa 0,0 l/m 0 min 2 min 0 W/m 31,4 km/h (5 Bft) 95,74 %
24.12.2016 23:08 8,6 C 8,3 C 6,7 C 86 % 3 lf 1024,9 hPa 0,0 l/m 0 min 2 min 0 W/m 37,7 km/h (5 Bft) 93,62 %
24.12.2016 23:10 8,6 C 8,3 C 6,7 C 86 % 4 lf 1024,9 hPa 0,0 l/m 0 min 2 min 0 W/m 33,5 km/h (5 Bft) 93,62 %
24.12.2016 23:12 8,6 C 8,3 C 6,7 C 86 % 2 lf 1024,9 hPa 0,0 l/m 0 min 2 min 0 W/m 31,4 km/h (5 Bft) 91,30 %
24.12.2016 23:14 8,6 C 8,3 C 6,7 C 86 % 2 lf 1024,9 hPa 0,0 l/m 0 min 2 min 0 W/m 29,3 km/h (5 Bft) 93,62 %
24.12.2016 23:16 8,6 C 8,3 C 6,7 C 86 % 3 lf 1025,0 hPa 0,0 l/m 0 min 2 min 0 W/m 31,4 km/h (5 Bft) 93,62 %
24.12.2016 23:18 8,6 C 8,3 C 6,7 C 86 % 9 lf 1024,9 hPa 0,0 l/m 0 min 2 min 0 W/m 31,4 km/h (5 Bft) 93,62 %
24.12.2016 23:20 8,6 C 8,3 C 6,7 C 86 % 10 lf 1024,9 hPa 0,0 l/m 0 min 2 min 0 W/m 27,2 km/h (4 Bft) 95,74 %
24.12.2016 23:22 8,6 C 8,3 C 6,7 C 86 % 13 lf 1025,0 hPa 0,0 l/m 0 min 2 min 0 W/m 35,6 km/h (5 Bft) 95,74 %
24.12.2016 23:24 8,6 C 8,3 C 6,7 C 86 % 14 lf 1025,1 hPa 0,0 l/m 0 min 0 min 0 W/m 31,4 km/h (5 Bft) 91,30 %
24.12.2016 23:26 8,5 C 8,3 C 6,1 C 86 % 14 lf 1025,0 hPa 0,0 l/m 0 min 2 min 0 W/m 27,2 km/h (4 Bft) 93,62 %
24.12.2016 23:28 8,5 C 8,3 C 6,1 C 87 % 15 lf 1025,1 hPa 0,0 l/m 0 min 2 min 0 W/m 31,4 km/h (5 Bft) 93,62 %
24.12.2016 23:30 8,5 C 8,3 C 6,1 C 87 % 15 lf 1025,1 hPa 0,0 l/m 0 min 2 min 0 W/m 35,6 km/h (5 Bft) 100,00 %
24.12.2016 23:32 8,5 C 8,3 C 6,1 C 87 % 15 lf 1025,1 hPa 0,0 l/m 0 min 2 min 0 W/m 29,3 km/h (5 Bft) 100,00 %
24.12.2016 23:34 8,4 C 8,3 C 6,1 C 87 % 15 lf 1025,1 hPa 0,0 l/m 0 min 2 min 0 W/m 27,2 km/h (4 Bft) 97,87 %
24.12.2016 23:36 8,4 C 8,3 C 6,1 C 87 % 15 lf 1025,2 hPa 0,0 l/m 0 min 0 min 0 W/m 20,9 km/h (4 Bft) 95,65 %
24.12.2016 23:38 8,4 C 8,3 C 6,1 C 87 % 15 lf 1025,2 hPa 0,0 l/m 0 min 0 min 0 W/m 29,3 km/h (5 Bft) 97,87 %
24.12.2016 23:40 8,4 C 8,3 C 6,1 C 87 % 15 lf 1025,2 hPa 0,0 l/m 0 min 2 min 0 W/m 33,5 km/h (5 Bft) 100,00 %
24.12.2016 23:42 8,3 C 8,3 C 6,1 C 87 % 15 lf 1025,2 hPa 0,0 l/m 0 min 2 min 0 W/m 35,6 km/h (5 Bft) 97,87 %
24.12.2016 23:44 8,3 C 8,3 C 6,1 C 88 % 15 lf 1025,2 hPa 0,0 l/m 0 min 2 min 0 W/m 39,7 km/h (6 Bft) 97,87 %
24.12.2016 23:46 8,3 C 7,8 C 5,6 C 88 % 15 lf 1025,2 hPa 0,0 l/m 0 min 2 min 0 W/m 31,4 km/h (5 Bft) 97,83 %
24.12.2016 23:48 8,3 C 7,8 C 5,6 C 88 % 15 lf 1025,2 hPa 0,0 l/m 0 min 2 min 0 W/m 31,4 km/h (5 Bft) 95,74 %
24.12.2016 23:50 8,3 C 7,8 C 5,6 C 88 % 15 lf 1025,1 hPa 0,0 l/m 0 min 2 min 0 W/m 31,4 km/h (5 Bft) 97,87 %
24.12.2016 23:52 8,2 C 7,8 C 5,6 C 88 % 15 lf 1025,1 hPa 0,0 l/m 0 min 2 min 0 W/m 29,3 km/h (5 Bft) 96,15 %
24.12.2016 23:54 8,2 C 7,8 C 5,6 C 88 % 15 lf 1025,1 hPa 0,0 l/m 0 min 2 min 0 W/m 31,4 km/h (5 Bft) 93,22 %
24.12.2016 23:56 8,2 C 7,8 C 5,6 C 88 % 15 lf 1025,0 hPa 0,0 l/m 0 min 2 min 0 W/m 27,2 km/h (4 Bft) 93,62 %
24.12.2016 23:58 8,2 C 7,8 C 5,6 C 88 % 15 lf 1025,1 hPa 0,0 l/m 0 min 2 min 0 W/m 31,4 km/h (5 Bft) 95,74 %
_ Min-Zeit 00:00 00:00 00:00 14:20 00:00 01:54 - - - - 00:06 03:18
Minimum _ 5,4 C 6,1 C 4,4 C 82 % 0 lf 1022,7 hPa - - - - 10,5 km/h (2 Bft) 87,23 %
_ Max-Zeit 23:06 12:16 12:14 03:58 01:08 11:18 02:34 09:50 01:08 12:16 02:14 00:08
Maximum _ 8,6 C 11,1 C 7,2 C 97 % 15 lf 1025,3 hPa 0,2 l/m 2 min 2 min 250 W/m 46,0 km/h
SW (6 Bft)
100,00 %
Durchschnitt _ 7,4 C 7,6 C 5,8 C 90 % 5 lf 1024,3 hPa #0,6 l/m #30 min. #2:50 h 67 W/m 26,6 km/h (4 Bft) 95,85 %
© 2016 W. Hausmann